GFSWCAN_prec_precacc_132.txt.gz
Total_Precipitation_Accumulation
1.72 1.80 1.67 1.52 1.19 1.04 1.24 1.41 1.17 1.19 1.13 0.96 1.05 0.98 0.87 0.93 1.31 2.15 2.92 1.57 2.33 2.54 0.72 0.44 0.38 0.28 0.15 0.22 0.44 0.37 0.65 0.46 0.47 0.49 0.32 0.23 0.36 0.51 0.56 0.47 0.34 0.43 0.69 0.55 0.47 0.58 0.28 0.14 0.28 0.67 1.00 1.03 1.04 1.18
2.03 1.74 1.57 1.33 1.03 1.07 1.24 1.43 1.18 1.17 1.07 0.91 0.81 0.82 0.84 0.91 1.37 1.95 2.69 1.75 1.67 2.57 1.42 0.47 0.47 0.28 0.16 0.16 0.45 0.59 0.54 0.64 0.70 0.64 0.46 0.41 0.40 0.33 0.44 0.62 0.34 0.45 0.42 0.48 0.41 0.44 0.43 0.23 0.36 0.65 0.71 0.78 0.79 0.84
2.23 1.94 1.67 1.31 1.14 1.16 1.26 1.33 1.11 1.01 0.91 0.87 0.80 0.73 0.76 0.99 1.41 1.99 2.07 1.72 2.62 3.65 1.90 0.81 0.55 0.27 0.23 0.14 0.21 0.48 0.40 0.45 0.56 0.54 0.67 0.50 0.54 0.38 0.59 0.53 0.51 0.65 0.33 0.49 0.59 0.76 0.32 0.22 0.27 0.33 0.42 0.59 0.53 0.51
1.97 1.66 1.23 1.09 1.09 1.16 1.04 1.04 0.95 0.85 0.84 0.87 0.78 0.88 0.88 1.22 1.45 2.02 1.77 1.99 2.54 2.58 2.15 0.94 0.53 0.38 0.22 0.28 0.23 0.25 0.26 0.36 0.45 0.58 0.66 0.66 0.67 0.56 0.87 0.57 0.55 0.93 0.51 0.60 0.90 1.52 0.76 0.65 0.74 0.68 0.48 0.48 0.40 0.42
1.41 1.14 0.93 0.80 0.81 0.92 0.87 1.01 0.95 0.85 0.93 0.89 0.81 0.96 1.36 1.47 1.85 2.31 1.66 2.04 2.11 2.24 2.04 1.04 0.45 0.36 0.27 0.22 0.20 0.23 0.27 0.36 0.50 0.65 0.58 0.41 0.40 0.66 1.08 0.60 0.59 0.71 0.92 0.89 1.05 1.27 1.09 0.94 0.70 0.53 0.38 0.34 0.26 0.19
1.04 0.91 0.76 0.70 0.68 0.78 0.70 0.84 0.89 0.94 0.83 0.86 0.95 1.11 1.35 1.67 2.80 3.82 4.76 3.40 2.07 1.75 2.35 1.75 0.66 0.26 0.32 0.32 0.36 0.25 0.33 0.48 0.59 0.56 0.42 0.43 0.39 0.86 1.27 0.81 0.72 0.79 1.08 0.95 0.88 0.90 0.73 0.61 0.44 0.33 0.24 0.24 0.19 0.12
0.95 0.82 0.68 0.63 0.55 0.55 0.59 0.71 0.69 0.78 0.95 1.01 1.05 1.00 1.38 2.40 2.81 2.25 2.13 1.86 1.34 1.65 2.20 1.74 1.20 0.54 0.41 0.56 0.97 0.75 0.67 0.78 0.86 0.73 0.44 0.31 0.43 0.82 1.12 0.94 0.76 0.79 0.85 0.67 0.55 0.42 0.41 0.40 0.30 0.19 0.14 0.14 0.10 0.07
0.79 0.65 0.57 0.52 0.50 0.52 0.59 0.65 0.68 0.78 0.90 0.91 1.02 1.32 2.08 2.71 2.37 1.86 0.90 0.73 0.87 1.58 1.53 1.53 1.41 1.54 0.78 0.77 1.07 1.07 0.96 1.12 1.23 0.92 0.52 0.36 0.66 0.92 1.22 0.77 0.45 0.38 0.40 0.29 0.21 0.10 0.11 0.09 0.07 0.06 0.05 0.07 0.12 0.15
0.61 0.52 0.49 0.49 0.56 0.67 0.72 0.65 0.72 0.84 0.98 1.37 2.08 3.08 4.54 3.98 3.06 1.79 0.99 1.08 1.12 1.49 1.31 0.79 1.16 1.77 1.28 0.88 1.09 1.12 1.13 1.30 0.79 0.69 0.64 0.68 0.61 0.98 1.00 0.43 0.31 0.18 0.15 0.14 0.06 0.01 0.00 0.00 0.02 0.04 0.05 0.06 0.10 0.18
0.53 0.50 0.52 0.55 0.63 0.65 0.67 0.77 0.92 1.19 1.68 2.43 3.19 3.94 4.77 2.83 1.86 2.09 3.41 3.32 2.53 1.53 0.84 0.57 0.75 1.23 1.50 1.26 1.04 1.37 1.10 0.90 0.71 0.51 0.53 0.73 0.74 0.39 0.20 0.19 0.14 0.10 0.11 0.07 0.04 0.03 0.03 0.04 0.08 0.13 0.19 0.20 0.21 0.21
0.60 0.56 0.59 0.60 0.66 0.84 0.99 1.02 1.15 1.48 1.96 2.48 2.90 3.14 2.71 2.28 2.29 2.81 2.62 2.15 1.52 0.89 0.35 0.26 0.59 1.16 1.35 1.39 1.12 0.95 1.41 1.19 0.67 0.59 0.62 0.72 0.55 0.33 0.16 0.10 0.07 0.08 0.05 0.05 0.05 0.07 0.08 0.12 0.18 0.27 0.31 0.29 0.24 0.20
0.50 0.51 0.54 0.61 0.72 0.91 0.94 0.99 1.00 1.31 1.58 1.40 1.68 2.21 2.96 2.75 2.18 1.66 1.25 0.98 0.62 0.44 0.36 0.26 0.38 0.58 1.27 1.49 1.24 0.81 1.02 1.25 1.45 0.92 0.86 0.77 0.47 0.19 0.11 0.11 0.11 0.11 0.10 0.10 0.12 0.17 0.23 0.26 0.28 0.26 0.25 0.23 0.27 0.33
0.47 0.55 0.68 0.74 0.68 0.76 0.94 1.06 1.19 1.24 1.39 1.62 1.42 1.88 1.88 1.60 1.41 1.13 0.90 0.67 0.55 0.27 0.29 0.35 0.43 0.60 0.96 1.37 1.36 1.00 1.17 1.16 1.14 1.33 0.79 0.61 0.32 0.25 0.34 0.38 0.38 0.31 0.30 0.32 0.35 0.33 0.28 0.30 0.31 0.33 0.41 0.52 0.58 0.70
0.45 0.55 0.52 0.61 0.81 1.05 1.20 1.36 1.67 1.82 1.79 1.52 1.23 1.23 1.05 1.02 0.74 0.75 0.74 0.70 0.49 0.37 0.33 0.34 0.52 0.85 0.82 1.00 1.42 1.31 1.40 1.04 1.05 0.85 0.62 0.55 0.56 0.73 0.69 0.54 0.44 0.50 0.50 0.52 0.59 0.59 0.62 0.67 0.85 0.94 0.96 1.06 0.92 0.97
0.48 0.39 0.55 0.93 1.07 1.07 1.10 1.25 1.57 1.29 1.24 1.09 0.72 0.62 0.68 0.86 0.68 0.71 0.68 0.53 0.54 0.62 0.68 0.77 1.05 0.97 0.74 1.04 0.99 0.95 0.88 0.71 0.61 0.72 0.80 0.92 0.87 0.84 0.70 0.67 0.64 0.66 0.67 0.68 0.75 0.73 0.85 0.88 0.76 0.90 0.97 0.87 0.69 0.69
0.26 0.47 0.68 0.70 0.59 0.70 0.92 1.45 1.58 0.86 0.77 0.66 0.78 0.89 0.78 0.82 0.91 0.83 0.71 0.66 0.76 0.93 0.88 0.89 0.97 0.95 0.98 0.79 0.61 0.57 0.56 0.70 0.91 0.76 0.90 0.94 0.85 0.90 0.88 0.82 0.85 0.87 0.79 0.80 0.83 0.78 0.72 0.67 0.61 0.65 0.65 0.62 0.61 0.48
0.27 0.45 0.71 0.58 0.62 0.74 1.09 1.35 1.14 1.01 0.74 0.68 1.07 1.19 1.08 0.99 1.11 1.03 0.95 0.87 0.82 0.70 0.60 0.56 0.58 0.63 0.66 0.46 0.53 0.56 0.80 0.88 0.87 0.91 0.92 0.93 0.95 1.01 1.05 0.94 0.87 0.74 0.67 0.68 0.67 0.64 0.64 0.65 0.50 0.36 0.40 0.51 0.38 0.32
0.33 0.45 0.54 0.54 0.60 0.85 0.94 0.79 0.74 0.54 0.53 0.87 1.03 1.25 0.80 0.92 0.89 0.81 0.83 0.68 0.54 0.45 0.43 0.54 0.47 0.48 0.67 0.84 0.88 0.86 0.95 1.02 1.04 1.00 0.98 1.00 0.95 0.89 0.80 0.71 0.71 0.60 0.55 0.56 0.48 0.45 0.43 0.38 0.28 0.31 0.27 0.25 0.18 0.16
0.64 0.56 0.75 0.79 0.56 0.60 0.70 0.52 0.27 0.38 0.75 0.81 0.86 0.66 0.50 0.63 0.63 0.60 0.43 0.28 0.18 0.16 0.18 0.24 0.35 0.60 0.82 0.90 0.91 0.93 0.93 0.85 0.88 0.86 0.78 0.78 0.77 0.73 0.67 0.58 0.56 0.58 0.48 0.46 0.32 0.25 0.24 0.19 0.19 0.16 0.15 0.11 0.15 0.18
0.95 0.86 0.86 0.66 0.31 0.33 0.25 0.21 0.03 0.14 0.36 0.47 0.42 0.22 0.19 0.32 0.26 0.17 0.11 0.06 0.07 0.06 0.13 0.29 0.66 0.81 0.71 0.76 0.68 0.69 0.69 0.63 0.50 0.39 0.50 0.58 0.60 0.47 0.52 0.45 0.43 0.39 0.30 0.27 0.23 0.19 0.15 0.14 0.16 0.16 0.15 0.15 0.16 0.17
0.91 1.00 0.77 0.37 0.27 0.23 0.19 0.10 0.07 0.07 0.13 0.19 0.14 0.05 0.10 0.07 0.05 0.06 0.03 0.01 0.05 0.14 0.44 0.67 0.65 0.69 0.48 0.46 0.40 0.36 0.43 0.40 0.40 0.30 0.35 0.46 0.49 0.31 0.33 0.36 0.32 0.28 0.24 0.25 0.23 0.26 0.21 0.21 0.19 0.15 0.14 0.11 0.11 0.12
0.66 0.57 0.57 0.27 0.18 0.17 0.11 0.05 0.08 0.04 0.06 0.10 0.09 0.04 0.06 0.09 0.06 0.04 0.02 0.07 0.35 0.61 0.60 0.46 0.39 0.31 0.21 0.25 0.23 0.17 0.23 0.19 0.24 0.35 0.44 0.36 0.39 0.37 0.39 0.43 0.31 0.30 0.29 0.29 0.25 0.22 0.19 0.15 0.11 0.08 0.06 0.08 0.06 0.05
0.30 0.27 0.28 0.16 0.17 0.16 0.15 0.12 0.11 0.04 0.04 0.08 0.05 0.04 0.04 0.04 0.04 0.02 0.07 0.20 0.57 0.66 0.45 0.23 0.18 0.15 0.18 0.28 0.19 0.16 0.14 0.10 0.12 0.18 0.23 0.26 0.28 0.31 0.29 0.30 0.28 0.25 0.22 0.20 0.14 0.12 0.10 0.05 0.02 0.02 0.04 0.05 0.05 0.05
0.23 0.32 0.46 0.26 0.12 0.17 0.13 0.18 0.12 0.09 0.04 0.03 0.03 0.06 0.07 0.04 0.03 0.04 0.12 0.26 0.49 0.36 0.21 0.24 0.18 0.15 0.15 0.15 0.17 0.21 0.26 0.20 0.21 0.23 0.25 0.19 0.18 0.21 0.14 0.12 0.09 0.08 0.06 0.05 0.02 0.02 0.02 0.03 0.04 0.07 0.06 0.05 0.05 0.06
0.41 0.31 0.37 0.31 0.14 0.09 0.07 0.10 0.13 0.07 0.05 0.03 0.05 0.08 0.05 0.03 0.05 0.07 0.10 0.34 0.31 0.29 0.29 0.26 0.20 0.18 0.18 0.21 0.23 0.21 0.17 0.12 0.10 0.11 0.14 0.08 0.08 0.07 0.05 0.03 0.03 0.04 0.03 0.04 0.05 0.05 0.05 0.05 0.07 0.07 0.07 0.09 0.11 0.13
0.54 0.30 0.18 0.16 0.09 0.07 0.06 0.05 0.04 0.04 0.04 0.09 0.13 0.10 0.07 0.08 0.08 0.17 0.25 0.39 0.31 0.33 0.36 0.35 0.27 0.19 0.17 0.15 0.14 0.12 0.08 0.06 0.03 0.03 0.04 0.01 0.02 0.03 0.04 0.04 0.06 0.09 0.08 0.07 0.09 0.09 0.09 0.09 0.10 0.11 0.15 0.15 0.13 0.14
0.31 0.28 0.12 0.10 0.13 0.14 0.21 0.19 0.17 0.17 0.16 0.17 0.15 0.12 0.16 0.20 0.19 0.36 0.47 0.43 0.39 0.40 0.30 0.23 0.15 0.10 0.12 0.11 0.09 0.08 0.03 0.01 0.01 0.02 0.03 0.02 0.03 0.03 0.03 0.05 0.07 0.06 0.04 0.09 0.09 0.08 0.10 0.13 0.14 0.15 0.16 0.16 0.16 0.16
0.12 0.11 0.14 0.17 0.26 0.28 0.25 0.20 0.24 0.29 0.32 0.27 0.19 0.17 0.19 0.18 0.36 0.50 0.50 0.49 0.36 0.24 0.16 0.13 0.11 0.05 0.04 0.05 0.07 0.07 0.07 0.05 0.03 0.02 0.03 0.07 0.05 0.02 0.03 0.04 0.03 0.02 0.03 0.08 0.11 0.12 0.13 0.16 0.16 0.16 0.14 0.16 0.19 0.22
0.10 0.12 0.12 0.15 0.13 0.15 0.20 0.22 0.28 0.27 0.24 0.20 0.16 0.21 0.21 0.28 0.46 0.45 0.46 0.38 0.31 0.18 0.15 0.16 0.25 0.11 0.07 0.07 0.08 0.07 0.05 0.04 0.02 0.03 0.04 0.06 0.10 0.12 0.08 0.06 0.07 0.07 0.09 0.13 0.18 0.16 0.16 0.19 0.18 0.19 0.17 0.17 0.19 0.20
0.03 0.04 0.05 0.04 0.09 0.16 0.25 0.20 0.23 0.18 0.10 0.08 0.08 0.13 0.18 0.47 0.71 0.49 0.35 0.30 0.26 0.23 0.19 0.16 0.15 0.10 0.09 0.09 0.12 0.16 0.18 0.12 0.07 0.06 0.06 0.05 0.05 0.09 0.08 0.07 0.07 0.08 0.08 0.06 0.08 0.14 0.12 0.11 0.13 0.16 0.13 0.15 0.16 0.15
0.04 0.06 0.06 0.06 0.16 0.22 0.21 0.13 0.13 0.12 0.11 0.10 0.09 0.08 0.20 0.38 0.44 0.42 0.32 0.33 0.26 0.15 0.12 0.14 0.15 0.13 0.10 0.10 0.07 0.06 0.12 0.12 0.07 0.05 0.03 0.04 0.06 0.07 0.08 0.07 0.07 0.07 0.07 0.07 0.06 0.07 0.08 0.07 0.10 0.10 0.08 0.08 0.10 0.09
0.10 0.12 0.09 0.13 0.27 0.23 0.25 0.24 0.18 0.21 0.16 0.12 0.13 0.11 0.16 0.14 0.17 0.23 0.24 0.28 0.26 0.18 0.17 0.15 0.19 0.27 0.18 0.17 0.15 0.13 0.09 0.08 0.07 0.05 0.05 0.06 0.08 0.08 0.06 0.06 0.06 0.07 0.07 0.06 0.06 0.08 0.06 0.06 0.07 0.07 0.08 0.07 0.07 0.07
0.10 0.07 0.08 0.09 0.14 0.17 0.16 0.18 0.15 0.13 0.13 0.15 0.20 0.21 0.21 0.16 0.17 0.23 0.21 0.20 0.33 0.23 0.18 0.17 0.16 0.20 0.22 0.17 0.14 0.15 0.16 0.16 0.13 0.11 0.10 0.10 0.08 0.07 0.06 0.06 0.06 0.05 0.03 0.03 0.05 0.06 0.05 0.05 0.06 0.06 0.05 0.05 0.04 0.04

GFSWCAN_prec_precacc_138.txt.gz
Total_Precipitation_Accumulation
1.78 1.84 1.70 1.55 1.22 1.08 1.27 1.45 1.22 1.23 1.18 1.03 1.11 1.04 0.96 1.09 1.65 2.43 3.03 1.67 2.41 2.56 0.73 0.46 0.41 0.29 0.16 0.22 0.45 0.37 0.68 0.47 0.49 0.51 0.34 0.24 0.36 0.52 0.56 0.47 0.34 0.43 0.69 0.56 0.47 0.61 0.28 0.14 0.28 0.67 1.00 1.03 1.04 1.18
2.22 1.85 1.62 1.37 1.07 1.09 1.26 1.46 1.22 1.20 1.12 1.00 0.89 0.89 0.91 1.03 1.63 2.27 2.80 1.78 1.74 2.62 1.44 0.48 0.51 0.33 0.18 0.16 0.45 0.60 0.54 0.64 0.70 0.65 0.46 0.41 0.41 0.33 0.44 0.62 0.34 0.45 0.42 0.48 0.41 0.44 0.43 0.23 0.36 0.65 0.71 0.78 0.79 0.84
2.43 2.10 1.81 1.37 1.19 1.20 1.28 1.35 1.14 1.04 0.97 0.95 0.90 0.81 0.84 1.09 1.64 2.32 2.17 1.74 2.65 3.71 1.90 0.81 0.55 0.30 0.31 0.16 0.22 0.49 0.41 0.46 0.56 0.54 0.68 0.50 0.55 0.38 0.59 0.53 0.51 0.65 0.33 0.49 0.59 0.76 0.32 0.22 0.27 0.33 0.42 0.59 0.53 0.51
2.11 1.89 1.42 1.23 1.14 1.21 1.06 1.07 0.96 0.88 0.88 0.94 0.93 0.97 0.97 1.33 1.71 2.31 1.87 2.02 2.55 2.59 2.16 0.94 0.53 0.38 0.26 0.37 0.25 0.26 0.27 0.36 0.47 0.59 0.67 0.67 0.68 0.56 0.88 0.57 0.55 0.93 0.51 0.60 0.90 1.52 0.76 0.65 0.74 0.68 0.48 0.48 0.40 0.42
1.46 1.21 1.09 0.99 0.89 0.97 0.91 1.03 0.96 0.87 0.97 0.93 1.02 1.09 1.45 1.62 2.21 2.53 1.71 2.07 2.11 2.24 2.04 1.04 0.45 0.36 0.27 0.26 0.31 0.30 0.28 0.38 0.52 0.68 0.60 0.43 0.41 0.67 1.09 0.60 0.59 0.71 0.92 0.89 1.05 1.27 1.09 0.94 0.70 0.53 0.38 0.34 0.26 0.19
1.07 0.95 0.84 0.87 0.79 0.83 0.74 0.86 0.91 0.96 0.87 0.90 1.22 1.25 1.46 1.96 3.18 3.99 5.01 3.55 2.08 1.75 2.35 1.75 0.66 0.26 0.32 0.35 0.47 0.50 0.50 0.57 0.65 0.59 0.44 0.45 0.39 0.88 1.28 0.81 0.72 0.79 1.08 0.95 0.88 0.90 0.73 0.61 0.44 0.33 0.24 0.24 0.19 0.12
0.99 0.84 0.74 0.79 0.66 0.60 0.62 0.73 0.71 0.80 0.99 1.06 1.35 1.14 1.59 2.70 2.96 2.36 2.23 1.90 1.34 1.66 2.21 1.74 1.20 0.54 0.42 0.61 1.03 0.79 0.80 1.02 1.02 0.83 0.47 0.32 0.43 0.85 1.17 0.95 0.76 0.79 0.85 0.67 0.55 0.42 0.41 0.40 0.30 0.19 0.14 0.14 0.10 0.07
0.82 0.70 0.67 0.66 0.57 0.58 0.62 0.67 0.70 0.81 0.94 1.15 1.25 1.51 2.26 2.82 2.45 1.93 0.92 0.74 0.87 1.59 1.54 1.53 1.42 1.56 0.83 0.92 1.30 1.13 1.07 1.35 1.41 1.06 0.63 0.39 0.68 0.96 1.25 0.77 0.45 0.38 0.40 0.29 0.21 0.10 0.11 0.09 0.07 0.06 0.05 0.07 0.12 0.15
0.65 0.59 0.58 0.55 0.61 0.72 0.74 0.67 0.75 0.87 1.08 1.61 2.24 3.24 4.69 4.07 3.24 1.88 1.01 1.09 1.14 1.50 1.33 0.79 1.16 1.80 1.45 0.97 1.37 1.41 1.23 1.42 1.00 0.80 0.67 0.70 0.65 0.99 1.01 0.43 0.31 0.18 0.15 0.14 0.06 0.01 0.00 0.00 0.02 0.04 0.05 0.06 0.10 0.18
0.57 0.54 0.56 0.59 0.67 0.67 0.69 0.80 0.95 1.22 1.79 2.57 3.31 4.11 4.97 2.90 2.02 2.23 3.54 3.41 2.57 1.55 0.90 0.60 0.75 1.24 1.63 1.59 1.23 1.62 1.25 0.97 0.78 0.57 0.54 0.75 0.75 0.39 0.20 0.19 0.14 0.10 0.11 0.07 0.04 0.03 0.03 0.04 0.08 0.13 0.19 0.20 0.21 0.21
0.64 0.60 0.63 0.63 0.69 0.88 1.04 1.07 1.21 1.57 2.05 2.54 2.98 3.30 2.75 2.38 2.53 3.04 2.92 2.21 1.54 0.91 0.35 0.26 0.59 1.18 1.37 1.51 1.34 1.04 1.49 1.21 0.68 0.61 0.64 0.73 0.55 0.33 0.16 0.10 0.07 0.08 0.05 0.05 0.05 0.07 0.08 0.12 0.18 0.27 0.31 0.29 0.24 0.20
0.53 0.53 0.56 0.63 0.75 0.95 0.99 1.05 1.05 1.33 1.59 1.41 1.74 2.25 3.03 2.95 2.39 2.03 1.47 1.02 0.64 0.45 0.37 0.26 0.39 0.62 1.29 1.55 1.39 0.91 1.04 1.25 1.46 0.93 0.88 0.78 0.47 0.19 0.11 0.11 0.11 0.11 0.10 0.10 0.12 0.17 0.23 0.26 0.28 0.26 0.25 0.24 0.27 0.33
0.49 0.57 0.69 0.75 0.69 0.77 0.94 1.06 1.19 1.24 1.39 1.63 1.43 1.89 1.91 1.72 1.53 1.29 0.96 0.68 0.56 0.27 0.29 0.35 0.48 0.65 1.01 1.43 1.44 1.07 1.18 1.16 1.14 1.33 0.79 0.61 0.32 0.25 0.34 0.38 0.38 0.31 0.30 0.32 0.35 0.33 0.28 0.30 0.31 0.33 0.41 0.52 0.58 0.71
0.46 0.56 0.53 0.62 0.81 1.05 1.20 1.36 1.67 1.83 1.81 1.54 1.25 1.24 1.06 1.04 0.75 0.75 0.74 0.70 0.49 0.37 0.33 0.34 0.54 0.89 0.87 1.01 1.44 1.33 1.41 1.04 1.05 0.86 0.62 0.55 0.56 0.73 0.69 0.54 0.44 0.50 0.50 0.52 0.59 0.59 0.62 0.67 0.85 0.94 0.96 1.06 0.93 0.97
0.49 0.40 0.57 0.95 1.09 1.10 1.11 1.26 1.58 1.31 1.26 1.10 0.72 0.62 0.68 0.86 0.68 0.71 0.68 0.53 0.54 0.62 0.68 0.77 1.06 0.99 0.75 1.05 0.99 0.95 0.88 0.71 0.61 0.72 0.80 0.92 0.87 0.84 0.70 0.67 0.64 0.66 0.67 0.68 0.75 0.73 0.85 0.88 0.76 0.90 0.97 0.88 0.70 0.70
0.27 0.48 0.72 0.78 0.64 0.73 0.94 1.46 1.58 0.86 0.77 0.66 0.78 0.89 0.78 0.83 0.91 0.83 0.71 0.66 0.76 0.93 0.88 0.89 0.97 0.95 0.98 0.79 0.61 0.57 0.56 0.70 0.91 0.76 0.90 0.94 0.85 0.90 0.88 0.82 0.85 0.87 0.79 0.80 0.83 0.78 0.72 0.67 0.61 0.66 0.66 0.63 0.62 0.49
0.27 0.46 0.72 0.59 0.64 0.75 1.11 1.35 1.14 1.01 0.74 0.68 1.08 1.20 1.09 0.99 1.11 1.04 0.95 0.87 0.82 0.70 0.60 0.56 0.58 0.63 0.66 0.46 0.53 0.56 0.80 0.88 0.87 0.92 0.93 0.93 0.95 1.01 1.05 0.94 0.87 0.74 0.67 0.68 0.67 0.65 0.64 0.66 0.50 0.37 0.41 0.52 0.39 0.34
0.33 0.45 0.54 0.54 0.60 0.85 0.94 0.79 0.74 0.54 0.53 0.88 1.04 1.26 0.81 0.93 0.89 0.81 0.83 0.68 0.54 0.45 0.43 0.54 0.47 0.48 0.67 0.84 0.88 0.86 0.95 1.02 1.05 1.00 0.98 1.00 0.95 0.89 0.80 0.71 0.71 0.60 0.55 0.56 0.48 0.45 0.43 0.38 0.28 0.31 0.28 0.26 0.19 0.18
0.64 0.56 0.75 0.80 0.57 0.60 0.70 0.52 0.27 0.38 0.76 0.82 0.88 0.70 0.54 0.67 0.67 0.60 0.43 0.28 0.18 0.16 0.18 0.24 0.35 0.60 0.82 0.91 0.92 0.93 0.93 0.85 0.88 0.86 0.78 0.78 0.77 0.73 0.67 0.58 0.56 0.58 0.48 0.46 0.33 0.25 0.24 0.19 0.19 0.16 0.15 0.11 0.15 0.19
0.95 0.86 0.86 0.66 0.31 0.33 0.25 0.21 0.03 0.14 0.36 0.48 0.47 0.26 0.22 0.39 0.37 0.21 0.13 0.06 0.07 0.06 0.13 0.29 0.66 0.81 0.72 0.76 0.68 0.69 0.69 0.63 0.50 0.40 0.51 0.59 0.61 0.47 0.52 0.46 0.44 0.40 0.31 0.28 0.23 0.19 0.15 0.14 0.16 0.16 0.15 0.15 0.16 0.18
0.91 1.00 0.77 0.37 0.27 0.23 0.19 0.10 0.07 0.07 0.13 0.20 0.19 0.07 0.13 0.15 0.15 0.12 0.08 0.02 0.07 0.15 0.44 0.67 0.65 0.69 0.48 0.46 0.40 0.36 0.43 0.40 0.40 0.30 0.36 0.46 0.50 0.32 0.33 0.36 0.32 0.29 0.25 0.26 0.23 0.26 0.21 0.22 0.20 0.15 0.15 0.12 0.12 0.13
0.66 0.57 0.57 0.27 0.18 0.17 0.11 0.05 0.08 0.04 0.06 0.10 0.10 0.04 0.07 0.12 0.10 0.07 0.04 0.08 0.37 0.62 0.61 0.47 0.39 0.31 0.21 0.25 0.23 0.17 0.23 0.19 0.24 0.35 0.44 0.36 0.40 0.37 0.40 0.43 0.31 0.31 0.30 0.30 0.26 0.23 0.20 0.16 0.11 0.08 0.07 0.09 0.07 0.06
0.30 0.27 0.28 0.16 0.17 0.16 0.15 0.12 0.11 0.04 0.04 0.08 0.05 0.04 0.04 0.04 0.04 0.02 0.07 0.20 0.59 0.70 0.46 0.23 0.18 0.15 0.18 0.28 0.19 0.16 0.14 0.10 0.12 0.18 0.23 0.26 0.28 0.31 0.29 0.30 0.28 0.26 0.23 0.20 0.15 0.12 0.10 0.06 0.02 0.03 0.05 0.06 0.07 0.07
0.23 0.32 0.46 0.26 0.12 0.17 0.13 0.18 0.12 0.09 0.04 0.03 0.03 0.06 0.07 0.04 0.03 0.04 0.12 0.26 0.52 0.40 0.22 0.24 0.18 0.15 0.15 0.15 0.17 0.21 0.26 0.20 0.21 0.23 0.25 0.19 0.18 0.21 0.14 0.12 0.09 0.08 0.06 0.05 0.02 0.03 0.03 0.05 0.05 0.08 0.07 0.06 0.06 0.07
0.41 0.31 0.37 0.31 0.14 0.09 0.07 0.10 0.13 0.07 0.05 0.03 0.05 0.08 0.05 0.03 0.05 0.07 0.10 0.36 0.34 0.31 0.30 0.27 0.20 0.18 0.18 0.22 0.23 0.21 0.17 0.12 0.10 0.11 0.15 0.09 0.09 0.08 0.06 0.03 0.03 0.04 0.03 0.04 0.05 0.05 0.06 0.07 0.08 0.08 0.09 0.10 0.11 0.14
0.54 0.30 0.18 0.16 0.09 0.07 0.06 0.05 0.04 0.04 0.04 0.10 0.13 0.10 0.07 0.08 0.09 0.17 0.26 0.41 0.33 0.34 0.37 0.36 0.28 0.19 0.17 0.15 0.14 0.13 0.08 0.06 0.03 0.03 0.05 0.01 0.02 0.04 0.05 0.05 0.07 0.10 0.08 0.08 0.09 0.09 0.10 0.09 0.11 0.12 0.16 0.16 0.14 0.14
0.31 0.28 0.12 0.10 0.13 0.14 0.21 0.19 0.17 0.17 0.16 0.17 0.16 0.12 0.16 0.20 0.19 0.37 0.49 0.45 0.41 0.42 0.31 0.24 0.15 0.10 0.12 0.11 0.10 0.08 0.03 0.01 0.01 0.02 0.03 0.03 0.03 0.04 0.04 0.06 0.08 0.06 0.05 0.09 0.10 0.09 0.10 0.13 0.14 0.16 0.17 0.17 0.16 0.17
0.13 0.11 0.14 0.17 0.26 0.28 0.25 0.21 0.24 0.30 0.33 0.27 0.19 0.17 0.19 0.18 0.37 0.52 0.52 0.51 0.38 0.25 0.17 0.14 0.11 0.05 0.04 0.05 0.07 0.07 0.07 0.06 0.03 0.02 0.03 0.07 0.05 0.02 0.03 0.05 0.04 0.03 0.04 0.08 0.12 0.15 0.15 0.17 0.16 0.16 0.15 0.17 0.21 0.23
0.10 0.12 0.12 0.15 0.13 0.15 0.20 0.23 0.28 0.28 0.26 0.20 0.17 0.22 0.21 0.29 0.47 0.46 0.47 0.40 0.32 0.19 0.16 0.17 0.26 0.12 0.08 0.07 0.08 0.07 0.05 0.05 0.03 0.03 0.04 0.06 0.10 0.12 0.09 0.08 0.09 0.08 0.10 0.13 0.20 0.19 0.20 0.21 0.20 0.21 0.19 0.20 0.22 0.23
0.03 0.04 0.05 0.05 0.09 0.16 0.26 0.21 0.24 0.19 0.11 0.09 0.09 0.13 0.19 0.47 0.72 0.50 0.36 0.31 0.28 0.24 0.21 0.16 0.16 0.10 0.10 0.10 0.12 0.16 0.18 0.13 0.07 0.06 0.06 0.05 0.06 0.09 0.09 0.08 0.07 0.08 0.09 0.07 0.11 0.18 0.16 0.15 0.17 0.21 0.16 0.17 0.19 0.17
0.04 0.06 0.06 0.06 0.16 0.23 0.22 0.14 0.13 0.12 0.12 0.10 0.09 0.09 0.20 0.39 0.44 0.42 0.33 0.34 0.27 0.16 0.13 0.15 0.16 0.14 0.11 0.11 0.08 0.06 0.12 0.12 0.08 0.06 0.04 0.04 0.06 0.07 0.08 0.07 0.08 0.08 0.09 0.10 0.10 0.11 0.11 0.10 0.13 0.13 0.11 0.10 0.13 0.12
0.10 0.13 0.09 0.13 0.27 0.23 0.26 0.24 0.18 0.21 0.16 0.13 0.14 0.11 0.16 0.14 0.18 0.23 0.24 0.28 0.27 0.19 0.18 0.16 0.20 0.28 0.19 0.18 0.16 0.14 0.10 0.09 0.07 0.05 0.06 0.07 0.09 0.08 0.06 0.06 0.07 0.08 0.08 0.08 0.09 0.11 0.09 0.08 0.10 0.10 0.11 0.10 0.10 0.10
0.10 0.07 0.08 0.09 0.14 0.17 0.16 0.19 0.15 0.13 0.14 0.16 0.21 0.22 0.22 0.16 0.18 0.23 0.21 0.21 0.33 0.24 0.18 0.17 0.17 0.20 0.23 0.18 0.16 0.17 0.17 0.17 0.15 0.12 0.11 0.11 0.09 0.07 0.07 0.07 0.07 0.06 0.04 0.04 0.06 0.08 0.07 0.07 0.08 0.08 0.07 0.07 0.06 0.06

GFSWCAN_prec_precacc_141.txt.gz
Total_Precipitation_Accumulation
1.83 1.86 1.71 1.56 1.23 1.09 1.28 1.46 1.23 1.24 1.19 1.09 1.18 1.25 1.27 1.37 1.97 2.50 3.09 1.69 2.47 2.60 0.78 0.47 0.42 0.30 0.16 0.24 0.49 0.41 0.73 0.52 0.52 0.54 0.36 0.24 0.36 0.52 0.56 0.47 0.34 0.44 0.69 0.56 0.48 0.63 0.29 0.14 0.28 0.67 1.00 1.03 1.04 1.18
2.34 1.93 1.63 1.38 1.08 1.10 1.27 1.47 1.23 1.21 1.13 1.03 0.95 1.00 1.10 1.32 1.80 2.30 2.83 1.82 1.78 2.67 1.50 0.49 0.52 0.34 0.18 0.16 0.46 0.62 0.56 0.65 0.71 0.65 0.46 0.42 0.42 0.35 0.46 0.63 0.34 0.45 0.42 0.49 0.41 0.44 0.43 0.23 0.36 0.65 0.71 0.78 0.79 0.84
2.50 2.21 1.85 1.38 1.20 1.20 1.29 1.36 1.15 1.05 0.98 0.97 0.94 0.89 0.91 1.25 1.76 2.33 2.19 1.75 2.67 3.75 1.94 0.82 0.56 0.30 0.31 0.16 0.22 0.52 0.42 0.46 0.56 0.54 0.69 0.51 0.55 0.39 0.61 0.54 0.51 0.65 0.33 0.49 0.59 0.76 0.32 0.22 0.27 0.33 0.42 0.59 0.53 0.51
2.13 1.96 1.51 1.24 1.15 1.22 1.07 1.07 0.97 0.89 0.90 0.96 0.96 1.02 1.01 1.39 1.76 2.31 1.88 2.02 2.56 2.60 2.20 0.97 0.53 0.38 0.26 0.38 0.26 0.27 0.29 0.38 0.48 0.61 0.69 0.69 0.68 0.57 0.88 0.58 0.56 0.94 0.51 0.60 0.90 1.52 0.76 0.65 0.74 0.68 0.48 0.48 0.40 0.42
1.47 1.26 1.19 1.02 0.90 0.97 0.91 1.04 0.96 0.89 0.99 0.95 1.05 1.11 1.48 1.66 2.23 2.53 1.72 2.08 2.12 2.26 2.06 1.06 0.46 0.36 0.27 0.26 0.32 0.30 0.28 0.41 0.56 0.73 0.62 0.44 0.41 0.69 1.11 0.62 0.59 0.71 0.92 0.89 1.05 1.27 1.09 0.94 0.70 0.53 0.38 0.34 0.26 0.19
1.08 0.99 0.94 0.91 0.80 0.83 0.74 0.87 0.91 0.98 0.90 0.93 1.24 1.27 1.49 1.99 3.19 4.00 5.09 3.67 2.11 1.77 2.37 1.77 0.67 0.26 0.32 0.35 0.47 0.51 0.52 0.61 0.72 0.66 0.48 0.47 0.41 0.92 1.30 0.82 0.72 0.79 1.08 0.95 0.88 0.90 0.73 0.61 0.44 0.33 0.24 0.24 0.19 0.12
1.00 0.88 0.82 0.82 0.67 0.61 0.62 0.73 0.72 0.82 1.02 1.09 1.37 1.17 1.63 2.74 2.99 2.39 2.27 1.96 1.35 1.66 2.22 1.75 1.21 0.55 0.42 0.61 1.05 0.85 0.85 1.06 1.08 0.90 0.51 0.35 0.47 0.89 1.19 0.96 0.76 0.79 0.85 0.67 0.55 0.42 0.41 0.40 0.30 0.19 0.14 0.14 0.10 0.07
0.84 0.75 0.72 0.69 0.57 0.58 0.63 0.68 0.72 0.84 0.96 1.17 1.28 1.61 2.35 2.97 2.56 1.98 0.92 0.74 0.87 1.59 1.55 1.54 1.44 1.58 0.84 0.93 1.34 1.19 1.11 1.41 1.53 1.12 0.69 0.41 0.72 1.01 1.27 0.77 0.45 0.38 0.40 0.29 0.21 0.10 0.11 0.09 0.07 0.06 0.05 0.07 0.12 0.15
0.69 0.65 0.63 0.56 0.62 0.73 0.75 0.68 0.77 0.89 1.18 1.70 2.46 3.48 4.98 4.29 3.37 1.93 1.02 1.10 1.17 1.52 1.33 0.79 1.17 1.83 1.48 1.01 1.40 1.44 1.27 1.50 1.11 0.93 0.72 0.75 0.71 1.02 1.01 0.43 0.31 0.18 0.15 0.14 0.06 0.01 0.00 0.00 0.02 0.04 0.05 0.06 0.10 0.18
0.63 0.57 0.57 0.60 0.67 0.68 0.70 0.82 0.96 1.41 2.03 2.80 3.65 4.32 5.19 3.00 2.04 2.24 3.57 3.45 2.60 1.57 0.91 0.60 0.76 1.27 1.66 1.61 1.25 1.67 1.39 1.06 0.84 0.62 0.61 0.79 0.76 0.39 0.20 0.19 0.14 0.10 0.11 0.07 0.04 0.03 0.03 0.04 0.08 0.13 0.19 0.20 0.21 0.21
0.65 0.61 0.63 0.63 0.69 0.88 1.05 1.09 1.40 1.75 2.12 2.66 3.07 3.35 2.80 2.41 2.56 3.06 2.94 2.22 1.55 0.92 0.36 0.26 0.59 1.20 1.39 1.56 1.41 1.11 1.56 1.30 0.75 0.65 0.67 0.75 0.56 0.33 0.16 0.10 0.07 0.08 0.05 0.05 0.05 0.07 0.08 0.12 0.18 0.27 0.31 0.29 0.24 0.20
0.54 0.54 0.57 0.63 0.75 0.95 1.00 1.11 1.09 1.34 1.61 1.42 1.75 2.26 3.05 2.97 2.41 2.04 1.49 1.03 0.65 0.45 0.37 0.26 0.39 0.65 1.32 1.56 1.42 1.01 1.14 1.28 1.50 0.94 0.90 0.79 0.47 0.19 0.11 0.11 0.11 0.11 0.10 0.10 0.12 0.17 0.23 0.26 0.28 0.26 0.25 0.24 0.27 0.33
0.49 0.57 0.69 0.75 0.69 0.77 0.94 1.06 1.19 1.25 1.39 1.64 1.45 1.90 1.92 1.73 1.54 1.30 0.99 0.68 0.57 0.28 0.29 0.36 0.50 0.67 1.02 1.43 1.46 1.11 1.22 1.19 1.16 1.35 0.81 0.61 0.32 0.25 0.34 0.38 0.38 0.31 0.30 0.32 0.35 0.33 0.28 0.30 0.31 0.33 0.41 0.52 0.58 0.71
0.46 0.56 0.53 0.62 0.81 1.05 1.20 1.36 1.67 1.83 1.83 1.58 1.27 1.25 1.07 1.05 0.76 0.76 0.77 0.74 0.52 0.38 0.33 0.35 0.54 0.90 0.87 1.02 1.47 1.36 1.43 1.05 1.06 0.87 0.62 0.55 0.56 0.73 0.69 0.54 0.44 0.50 0.50 0.52 0.59 0.59 0.62 0.67 0.85 0.94 0.96 1.06 0.93 0.97
0.49 0.40 0.57 0.95 1.09 1.10 1.11 1.26 1.58 1.33 1.31 1.14 0.74 0.62 0.68 0.87 0.69 0.72 0.69 0.53 0.54 0.64 0.71 0.78 1.08 1.03 0.78 1.08 1.00 0.97 0.88 0.72 0.62 0.72 0.80 0.92 0.87 0.84 0.70 0.67 0.64 0.66 0.67 0.68 0.75 0.73 0.85 0.88 0.76 0.90 0.97 0.88 0.70 0.70
0.27 0.48 0.72 0.78 0.65 0.73 0.94 1.47 1.59 0.86 0.78 0.66 0.79 0.92 0.80 0.83 0.92 0.83 0.71 0.67 0.77 0.96 0.93 0.93 1.00 0.99 1.04 0.80 0.62 0.57 0.56 0.70 0.91 0.76 0.90 0.94 0.85 0.90 0.88 0.82 0.85 0.87 0.79 0.80 0.83 0.78 0.72 0.67 0.61 0.66 0.67 0.63 0.62 0.49
0.27 0.46 0.72 0.60 0.65 0.76 1.11 1.36 1.15 1.01 0.74 0.68 1.09 1.20 1.10 1.00 1.12 1.04 0.95 0.87 0.83 0.73 0.63 0.58 0.60 0.65 0.67 0.46 0.53 0.56 0.80 0.88 0.87 0.92 0.93 0.93 0.95 1.01 1.05 0.94 0.87 0.74 0.67 0.68 0.67 0.65 0.64 0.66 0.51 0.37 0.41 0.52 0.39 0.34
0.34 0.45 0.54 0.54 0.61 0.86 0.94 0.80 0.75 0.54 0.54 0.88 1.05 1.27 0.81 0.93 0.90 0.82 0.84 0.68 0.55 0.46 0.44 0.54 0.47 0.48 0.67 0.84 0.88 0.86 0.95 1.02 1.05 1.00 0.98 1.01 0.96 0.89 0.80 0.71 0.71 0.60 0.55 0.56 0.48 0.45 0.43 0.38 0.28 0.31 0.28 0.27 0.19 0.18
0.64 0.56 0.76 0.80 0.57 0.62 0.70 0.52 0.27 0.39 0.77 0.83 0.89 0.70 0.54 0.68 0.67 0.61 0.43 0.29 0.19 0.17 0.18 0.24 0.35 0.60 0.82 0.91 0.92 0.93 0.93 0.85 0.88 0.86 0.78 0.79 0.77 0.73 0.67 0.58 0.56 0.58 0.48 0.46 0.33 0.25 0.24 0.19 0.19 0.16 0.15 0.11 0.15 0.19
0.95 0.86 0.86 0.66 0.32 0.34 0.25 0.21 0.03 0.14 0.37 0.48 0.47 0.26 0.22 0.40 0.37 0.22 0.14 0.07 0.08 0.06 0.13 0.29 0.66 0.81 0.72 0.76 0.68 0.69 0.69 0.63 0.50 0.40 0.51 0.59 0.61 0.47 0.52 0.46 0.44 0.40 0.31 0.28 0.23 0.19 0.15 0.14 0.16 0.16 0.15 0.15 0.16 0.18
0.91 1.00 0.77 0.37 0.28 0.23 0.19 0.10 0.07 0.07 0.13 0.20 0.21 0.09 0.14 0.17 0.16 0.16 0.11 0.02 0.08 0.15 0.44 0.67 0.65 0.69 0.48 0.46 0.40 0.36 0.43 0.40 0.40 0.30 0.36 0.47 0.50 0.32 0.34 0.36 0.32 0.29 0.25 0.26 0.23 0.26 0.21 0.22 0.20 0.15 0.15 0.12 0.13 0.14
0.66 0.57 0.57 0.27 0.19 0.17 0.11 0.05 0.08 0.04 0.06 0.10 0.12 0.08 0.08 0.15 0.16 0.10 0.05 0.09 0.38 0.63 0.62 0.47 0.39 0.31 0.21 0.25 0.23 0.17 0.23 0.19 0.24 0.35 0.44 0.36 0.40 0.37 0.40 0.43 0.31 0.31 0.30 0.30 0.26 0.23 0.20 0.16 0.11 0.08 0.07 0.09 0.07 0.07
0.30 0.27 0.28 0.16 0.17 0.16 0.15 0.12 0.11 0.04 0.04 0.08 0.05 0.06 0.06 0.05 0.05 0.04 0.08 0.21 0.59 0.71 0.46 0.23 0.18 0.15 0.18 0.28 0.19 0.16 0.14 0.10 0.12 0.18 0.24 0.26 0.28 0.31 0.29 0.30 0.28 0.26 0.23 0.21 0.15 0.13 0.11 0.06 0.03 0.03 0.06 0.07 0.08 0.08
0.23 0.32 0.46 0.26 0.12 0.17 0.13 0.18 0.12 0.09 0.04 0.03 0.03 0.06 0.07 0.05 0.03 0.04 0.12 0.26 0.52 0.40 0.22 0.24 0.18 0.15 0.15 0.15 0.17 0.21 0.26 0.20 0.21 0.23 0.25 0.19 0.18 0.21 0.15 0.12 0.09 0.08 0.07 0.05 0.02 0.03 0.03 0.05 0.05 0.09 0.08 0.08 0.08 0.09
0.41 0.31 0.37 0.31 0.14 0.09 0.07 0.10 0.13 0.07 0.05 0.03 0.05 0.08 0.05 0.03 0.06 0.08 0.10 0.36 0.35 0.32 0.31 0.28 0.20 0.18 0.19 0.22 0.23 0.21 0.17 0.12 0.10 0.11 0.15 0.09 0.09 0.08 0.06 0.03 0.03 0.04 0.03 0.04 0.05 0.06 0.06 0.07 0.09 0.09 0.10 0.12 0.13 0.15
0.54 0.30 0.18 0.16 0.09 0.07 0.06 0.05 0.05 0.05 0.05 0.10 0.13 0.10 0.07 0.09 0.09 0.17 0.26 0.41 0.34 0.35 0.38 0.37 0.28 0.19 0.17 0.15 0.14 0.13 0.08 0.06 0.03 0.04 0.05 0.01 0.03 0.04 0.06 0.06 0.07 0.10 0.08 0.09 0.09 0.09 0.10 0.10 0.11 0.13 0.17 0.17 0.15 0.16
0.31 0.28 0.12 0.10 0.13 0.14 0.21 0.19 0.18 0.17 0.16 0.17 0.16 0.12 0.16 0.20 0.19 0.37 0.49 0.46 0.42 0.42 0.31 0.24 0.15 0.11 0.12 0.11 0.10 0.08 0.03 0.01 0.01 0.02 0.03 0.03 0.03 0.04 0.04 0.07 0.09 0.08 0.05 0.09 0.10 0.09 0.11 0.13 0.15 0.17 0.18 0.18 0.18 0.19
0.13 0.11 0.14 0.17 0.26 0.28 0.25 0.21 0.25 0.30 0.33 0.27 0.19 0.17 0.20 0.18 0.37 0.52 0.52 0.52 0.39 0.25 0.17 0.14 0.11 0.05 0.04 0.05 0.07 0.07 0.07 0.06 0.03 0.02 0.03 0.07 0.05 0.02 0.03 0.06 0.04 0.03 0.04 0.09 0.13 0.16 0.16 0.18 0.17 0.17 0.16 0.19 0.23 0.25
0.10 0.13 0.12 0.15 0.13 0.16 0.20 0.23 0.29 0.28 0.26 0.21 0.17 0.22 0.22 0.29 0.47 0.47 0.48 0.40 0.33 0.19 0.17 0.18 0.27 0.12 0.08 0.07 0.08 0.07 0.05 0.05 0.03 0.04 0.04 0.07 0.10 0.12 0.09 0.08 0.09 0.08 0.10 0.14 0.20 0.20 0.22 0.24 0.21 0.23 0.21 0.22 0.24 0.24
0.04 0.04 0.06 0.05 0.09 0.16 0.27 0.21 0.25 0.19 0.11 0.10 0.09 0.14 0.19 0.47 0.72 0.50 0.36 0.32 0.29 0.25 0.22 0.17 0.16 0.11 0.11 0.10 0.13 0.16 0.18 0.13 0.07 0.06 0.07 0.06 0.06 0.09 0.09 0.08 0.08 0.08 0.09 0.09 0.12 0.20 0.19 0.17 0.20 0.23 0.18 0.19 0.21 0.19
0.04 0.06 0.06 0.07 0.16 0.23 0.23 0.14 0.14 0.12 0.12 0.11 0.10 0.09 0.21 0.39 0.45 0.42 0.33 0.35 0.28 0.17 0.14 0.15 0.17 0.14 0.12 0.12 0.09 0.07 0.13 0.13 0.08 0.06 0.04 0.05 0.06 0.08 0.09 0.08 0.08 0.09 0.10 0.11 0.12 0.13 0.14 0.13 0.15 0.15 0.13 0.12 0.14 0.13
0.10 0.13 0.09 0.13 0.27 0.24 0.26 0.24 0.19 0.22 0.17 0.13 0.14 0.12 0.17 0.14 0.18 0.23 0.24 0.29 0.27 0.19 0.18 0.16 0.20 0.28 0.19 0.19 0.16 0.15 0.11 0.09 0.08 0.06 0.06 0.07 0.10 0.09 0.07 0.07 0.08 0.08 0.09 0.09 0.10 0.12 0.11 0.11 0.12 0.12 0.13 0.12 0.12 0.12
0.10 0.07 0.08 0.10 0.14 0.17 0.16 0.19 0.15 0.14 0.14 0.16 0.21 0.23 0.23 0.17 0.18 0.23 0.22 0.21 0.34 0.24 0.18 0.17 0.17 0.21 0.23 0.19 0.16 0.17 0.18 0.18 0.15 0.12 0.11 0.12 0.09 0.08 0.08 0.08 0.07 0.06 0.05 0.05 0.07 0.09 0.09 0.09 0.09 0.10 0.09 0.08 0.08 0.07

GFSWCAN_prec_precacc_147.txt.gz
Total_Precipitation_Accumulation
1.95 1.95 1.77 1.60 1.28 1.14 1.33 1.49 1.25 1.27 1.23 1.14 1.25 1.31 1.32 1.44 2.30 2.82 3.46 1.81 2.63 2.88 0.87 0.56 0.51 0.41 0.22 0.27 0.54 0.47 0.84 0.64 0.88 0.81 0.59 0.43 0.43 0.52 0.56 0.48 0.36 0.45 0.76 0.65 0.55 0.69 0.30 0.14 0.28 0.67 1.00 1.03 1.04 1.18
2.40 2.03 1.72 1.42 1.11 1.14 1.31 1.49 1.25 1.24 1.16 1.08 1.02 1.09 1.30 1.52 2.06 2.69 3.10 2.06 1.88 2.84 1.69 0.64 0.61 0.39 0.27 0.24 0.49 0.69 0.64 0.70 0.77 0.77 0.54 0.47 0.45 0.36 0.47 0.65 0.34 0.47 0.43 0.49 0.43 0.45 0.43 0.23 0.36 0.65 0.71 0.78 0.79 0.84
2.55 2.29 1.98 1.45 1.23 1.23 1.30 1.38 1.17 1.07 1.00 0.99 0.99 0.99 1.28 1.65 1.92 2.58 2.41 2.01 2.90 3.94 2.05 0.89 0.61 0.33 0.34 0.21 0.23 0.56 0.46 0.49 0.61 0.56 0.71 0.55 0.58 0.40 0.63 0.55 0.53 0.66 0.33 0.49 0.60 0.76 0.32 0.22 0.27 0.35 0.43 0.59 0.53 0.51
2.20 2.03 1.66 1.37 1.18 1.22 1.08 1.09 0.99 0.91 0.91 0.98 1.00 1.15 1.44 1.93 1.99 2.46 2.05 2.12 2.81 2.77 2.29 1.03 0.55 0.38 0.26 0.38 0.28 0.29 0.31 0.38 0.49 0.67 0.75 0.73 0.72 0.58 0.90 0.58 0.57 0.94 0.52 0.61 0.91 1.52 0.76 0.65 0.74 0.69 0.49 0.48 0.40 0.42
1.54 1.32 1.33 1.22 0.94 0.98 0.93 1.05 0.98 0.90 1.00 0.97 1.07 1.26 1.94 2.32 2.56 2.74 1.81 2.17 2.27 2.39 2.16 1.08 0.47 0.37 0.27 0.26 0.32 0.30 0.29 0.43 0.59 0.75 0.65 0.46 0.42 0.70 1.13 0.62 0.59 0.71 0.93 0.91 1.06 1.27 1.09 0.94 0.70 0.53 0.38 0.34 0.26 0.19
1.13 1.04 1.14 1.09 0.82 0.84 0.75 0.88 0.92 0.99 0.92 0.94 1.27 1.45 2.08 2.76 3.52 4.16 5.27 3.89 2.23 1.84 2.43 1.81 0.68 0.26 0.32 0.35 0.47 0.51 0.52 0.62 0.76 0.71 0.51 0.47 0.41 0.95 1.33 0.82 0.72 0.79 1.08 0.95 0.88 0.90 0.73 0.62 0.44 0.33 0.24 0.24 0.19 0.12
1.07 1.04 0.98 0.85 0.68 0.61 0.63 0.74 0.73 0.84 1.04 1.11 1.44 1.56 2.30 3.32 3.22 2.47 2.34 2.08 1.43 1.72 2.26 1.81 1.24 0.57 0.42 0.61 1.05 0.85 0.85 1.08 1.10 0.93 0.52 0.37 0.49 0.96 1.23 0.97 0.77 0.79 0.85 0.67 0.55 0.42 0.41 0.40 0.30 0.19 0.14 0.14 0.10 0.07
0.97 0.86 0.75 0.70 0.58 0.58 0.64 0.70 0.74 0.86 1.00 1.25 1.56 1.99 2.61 3.15 2.64 2.01 0.93 0.80 0.90 1.61 1.56 1.57 1.51 1.61 0.84 0.93 1.34 1.20 1.17 1.45 1.55 1.14 0.70 0.42 0.76 1.10 1.33 0.78 0.45 0.38 0.40 0.29 0.21 0.10 0.11 0.09 0.07 0.06 0.05 0.07 0.12 0.15
0.76 0.67 0.64 0.57 0.63 0.74 0.76 0.71 0.81 0.93 1.25 1.87 2.68 3.56 4.99 4.29 3.38 1.96 1.02 1.12 1.19 1.54 1.35 0.81 1.19 1.86 1.48 1.02 1.42 1.50 1.34 1.60 1.15 0.94 0.73 0.76 0.73 1.05 1.01 0.43 0.31 0.18 0.15 0.14 0.06 0.01 0.00 0.00 0.02 0.04 0.05 0.06 0.10 0.18
0.65 0.58 0.57 0.61 0.69 0.69 0.72 0.85 1.00 1.47 2.16 2.94 3.68 4.34 5.24 3.04 2.07 2.25 3.59 3.50 2.66 1.60 0.93 0.61 0.77 1.32 1.67 1.63 1.29 1.71 1.42 1.09 0.87 0.64 0.62 0.82 0.77 0.39 0.20 0.19 0.14 0.10 0.12 0.08 0.04 0.04 0.04 0.05 0.08 0.13 0.19 0.20 0.21 0.21
0.66 0.61 0.64 0.63 0.69 0.89 1.05 1.11 1.43 1.81 2.22 2.75 3.13 3.50 2.88 2.44 2.61 3.09 2.97 2.26 1.59 0.95 0.36 0.27 0.60 1.25 1.42 1.59 1.46 1.16 1.60 1.38 0.89 0.73 0.70 0.81 0.56 0.33 0.16 0.10 0.07 0.09 0.06 0.07 0.11 0.11 0.10 0.13 0.18 0.27 0.31 0.29 0.24 0.20
0.54 0.54 0.57 0.63 0.76 0.96 1.03 1.15 1.12 1.39 1.65 1.44 1.79 2.32 3.09 3.02 2.46 2.07 1.51 1.06 0.66 0.46 0.37 0.26 0.39 0.69 1.38 1.63 1.49 1.04 1.16 1.33 1.57 1.12 1.11 0.84 0.50 0.22 0.12 0.16 0.14 0.12 0.13 0.13 0.14 0.17 0.23 0.26 0.28 0.26 0.25 0.24 0.27 0.33
0.49 0.57 0.70 0.77 0.73 0.82 1.00 1.11 1.26 1.28 1.40 1.65 1.47 1.94 1.96 1.75 1.56 1.32 1.00 0.69 0.57 0.28 0.30 0.36 0.52 0.75 1.05 1.47 1.50 1.16 1.33 1.30 1.26 1.43 0.83 0.64 0.36 0.36 0.42 0.46 0.44 0.35 0.30 0.32 0.35 0.33 0.28 0.30 0.31 0.33 0.41 0.52 0.58 0.71
0.47 0.58 0.57 0.69 0.91 1.16 1.30 1.41 1.73 1.89 1.92 1.65 1.29 1.25 1.10 1.06 0.77 0.79 0.82 0.79 0.57 0.41 0.34 0.36 0.59 0.93 0.90 1.04 1.52 1.42 1.51 1.14 1.21 0.91 0.64 0.59 0.61 0.76 0.69 0.54 0.44 0.50 0.50 0.52 0.59 0.59 0.62 0.67 0.85 0.94 0.96 1.06 0.93 0.98
0.49 0.40 0.59 0.99 1.12 1.13 1.13 1.27 1.64 1.44 1.47 1.22 0.78 0.65 0.70 0.94 0.75 0.75 0.70 0.55 0.56 0.67 0.73 0.82 1.13 1.08 0.83 1.13 1.02 1.02 0.93 0.77 0.62 0.74 0.84 0.93 0.88 0.84 0.70 0.67 0.64 0.66 0.67 0.68 0.75 0.73 0.85 0.88 0.76 0.90 0.98 0.88 0.70 0.70
0.27 0.48 0.72 0.78 0.65 0.74 0.94 1.51 1.65 0.95 0.85 0.72 0.81 0.95 0.85 0.87 0.94 0.84 0.71 0.67 0.78 1.05 1.04 1.03 1.08 1.05 1.10 0.85 0.65 0.59 0.58 0.71 0.93 0.78 0.91 0.94 0.85 0.90 0.88 0.82 0.85 0.87 0.79 0.80 0.83 0.78 0.72 0.67 0.61 0.66 0.67 0.63 0.62 0.49
0.27 0.46 0.72 0.60 0.65 0.76 1.11 1.40 1.21 1.03 0.77 0.71 1.19 1.27 1.12 1.05 1.16 1.05 0.95 0.87 0.88 0.85 0.71 0.68 0.66 0.70 0.74 0.52 0.56 0.58 0.82 0.89 0.87 0.92 0.93 0.93 0.95 1.01 1.05 0.94 0.87 0.74 0.67 0.68 0.67 0.65 0.64 0.66 0.51 0.37 0.41 0.53 0.39 0.34
0.42 0.46 0.54 0.54 0.61 0.87 0.96 0.81 0.78 0.57 0.57 0.92 1.11 1.33 0.83 0.95 0.91 0.82 0.84 0.68 0.61 0.55 0.54 0.65 0.56 0.54 0.72 0.88 0.91 0.87 0.95 1.03 1.05 1.01 0.98 1.01 0.96 0.89 0.80 0.71 0.72 0.60 0.55 0.56 0.49 0.45 0.43 0.39 0.29 0.32 0.28 0.27 0.19 0.18
0.67 0.57 0.77 0.82 0.58 0.63 0.72 0.52 0.28 0.40 0.78 0.83 0.90 0.72 0.54 0.68 0.67 0.61 0.43 0.29 0.21 0.27 0.41 0.39 0.47 0.65 0.87 0.92 0.92 0.94 0.93 0.85 0.89 0.87 0.79 0.79 0.78 0.73 0.67 0.58 0.56 0.59 0.48 0.46 0.33 0.25 0.24 0.19 0.19 0.16 0.15 0.11 0.16 0.19
0.95 0.86 0.88 0.68 0.34 0.38 0.26 0.21 0.04 0.15 0.38 0.50 0.47 0.27 0.23 0.41 0.38 0.23 0.14 0.08 0.11 0.14 0.33 0.44 0.69 0.82 0.72 0.76 0.68 0.70 0.70 0.64 0.50 0.40 0.52 0.60 0.61 0.47 0.53 0.46 0.44 0.40 0.31 0.28 0.23 0.19 0.15 0.14 0.16 0.16 0.15 0.15 0.17 0.19
0.91 1.00 0.77 0.38 0.29 0.26 0.19 0.10 0.07 0.07 0.13 0.21 0.21 0.09 0.16 0.17 0.17 0.17 0.13 0.05 0.15 0.24 0.50 0.67 0.65 0.69 0.48 0.46 0.40 0.36 0.43 0.40 0.41 0.30 0.36 0.47 0.50 0.32 0.34 0.37 0.32 0.29 0.25 0.26 0.23 0.26 0.21 0.22 0.20 0.15 0.15 0.13 0.14 0.14
0.66 0.57 0.57 0.28 0.22 0.20 0.12 0.05 0.08 0.04 0.06 0.10 0.13 0.09 0.13 0.18 0.17 0.11 0.06 0.11 0.41 0.64 0.62 0.47 0.39 0.31 0.21 0.25 0.23 0.17 0.23 0.19 0.24 0.35 0.44 0.37 0.40 0.38 0.40 0.44 0.31 0.31 0.30 0.30 0.26 0.23 0.20 0.16 0.11 0.08 0.08 0.10 0.08 0.08
0.30 0.27 0.28 0.16 0.17 0.16 0.15 0.12 0.11 0.04 0.04 0.08 0.05 0.07 0.09 0.08 0.06 0.06 0.14 0.23 0.59 0.71 0.46 0.23 0.18 0.15 0.18 0.28 0.19 0.16 0.14 0.10 0.12 0.18 0.24 0.27 0.28 0.31 0.29 0.30 0.28 0.26 0.24 0.21 0.15 0.13 0.11 0.06 0.03 0.04 0.07 0.08 0.10 0.10
0.23 0.32 0.46 0.26 0.12 0.18 0.13 0.18 0.12 0.09 0.04 0.04 0.04 0.07 0.08 0.06 0.03 0.07 0.15 0.27 0.52 0.40 0.22 0.24 0.19 0.16 0.15 0.16 0.17 0.21 0.26 0.20 0.21 0.24 0.25 0.19 0.18 0.21 0.15 0.13 0.09 0.08 0.07 0.05 0.02 0.03 0.04 0.06 0.06 0.10 0.10 0.10 0.10 0.11
0.41 0.31 0.37 0.31 0.14 0.10 0.08 0.11 0.13 0.08 0.06 0.04 0.05 0.09 0.07 0.03 0.08 0.09 0.11 0.36 0.35 0.33 0.31 0.28 0.21 0.18 0.19 0.23 0.23 0.22 0.17 0.12 0.10 0.11 0.15 0.09 0.09 0.08 0.06 0.03 0.03 0.04 0.03 0.04 0.06 0.06 0.07 0.08 0.10 0.11 0.12 0.14 0.16 0.17
0.54 0.30 0.18 0.16 0.09 0.08 0.06 0.06 0.06 0.06 0.05 0.11 0.14 0.11 0.07 0.11 0.11 0.18 0.27 0.42 0.34 0.36 0.38 0.37 0.29 0.20 0.19 0.16 0.14 0.13 0.09 0.06 0.03 0.04 0.05 0.02 0.03 0.05 0.07 0.07 0.08 0.10 0.08 0.09 0.09 0.10 0.11 0.10 0.12 0.14 0.18 0.19 0.17 0.18
0.31 0.28 0.12 0.11 0.13 0.14 0.21 0.20 0.18 0.18 0.17 0.19 0.17 0.13 0.17 0.22 0.20 0.38 0.50 0.47 0.43 0.43 0.31 0.25 0.16 0.11 0.12 0.11 0.10 0.08 0.03 0.01 0.01 0.03 0.03 0.03 0.03 0.04 0.04 0.09 0.12 0.11 0.06 0.10 0.10 0.09 0.11 0.14 0.15 0.17 0.20 0.20 0.19 0.21
0.13 0.12 0.14 0.18 0.27 0.29 0.26 0.22 0.26 0.31 0.34 0.28 0.19 0.18 0.21 0.19 0.39 0.53 0.52 0.52 0.40 0.27 0.20 0.16 0.12 0.05 0.04 0.05 0.07 0.07 0.07 0.06 0.03 0.02 0.03 0.08 0.05 0.02 0.04 0.06 0.04 0.03 0.04 0.09 0.13 0.16 0.18 0.19 0.18 0.17 0.18 0.20 0.25 0.29
0.10 0.13 0.12 0.16 0.14 0.16 0.21 0.24 0.30 0.30 0.26 0.21 0.18 0.24 0.23 0.29 0.47 0.47 0.48 0.41 0.34 0.21 0.22 0.22 0.30 0.13 0.08 0.08 0.08 0.08 0.05 0.05 0.03 0.04 0.04 0.08 0.11 0.13 0.09 0.08 0.10 0.09 0.11 0.14 0.21 0.21 0.23 0.27 0.23 0.24 0.22 0.23 0.25 0.27
0.04 0.04 0.06 0.05 0.09 0.16 0.27 0.22 0.26 0.21 0.11 0.10 0.10 0.14 0.19 0.48 0.72 0.50 0.36 0.32 0.29 0.27 0.24 0.19 0.18 0.13 0.12 0.12 0.14 0.17 0.18 0.13 0.08 0.08 0.08 0.08 0.08 0.10 0.09 0.08 0.08 0.09 0.10 0.10 0.13 0.21 0.21 0.21 0.24 0.26 0.20 0.21 0.23 0.22
0.04 0.07 0.07 0.07 0.16 0.24 0.24 0.15 0.14 0.13 0.13 0.12 0.11 0.11 0.22 0.41 0.45 0.43 0.33 0.35 0.28 0.18 0.16 0.18 0.19 0.16 0.14 0.13 0.11 0.08 0.14 0.13 0.08 0.06 0.04 0.05 0.06 0.08 0.09 0.08 0.08 0.09 0.11 0.13 0.13 0.15 0.17 0.16 0.18 0.18 0.15 0.14 0.16 0.15
0.11 0.13 0.10 0.14 0.28 0.25 0.26 0.25 0.19 0.22 0.17 0.14 0.15 0.13 0.19 0.16 0.18 0.24 0.24 0.29 0.28 0.20 0.19 0.18 0.23 0.30 0.21 0.21 0.18 0.15 0.11 0.10 0.08 0.06 0.06 0.07 0.10 0.09 0.07 0.07 0.08 0.09 0.10 0.10 0.12 0.14 0.15 0.14 0.16 0.16 0.16 0.15 0.15 0.14
0.11 0.08 0.10 0.11 0.15 0.19 0.18 0.19 0.16 0.14 0.15 0.17 0.22 0.24 0.25 0.19 0.19 0.24 0.22 0.21 0.35 0.25 0.20 0.19 0.20 0.23 0.23 0.19 0.17 0.18 0.19 0.19 0.16 0.13 0.12 0.12 0.10 0.09 0.08 0.08 0.08 0.07 0.06 0.07 0.10 0.12 0.12 0.11 0.12 0.13 0.12 0.11 0.11 0.10

GFSWCAN_prec_precacc_150.txt.gz
Total_Precipitation_Accumulation
1.98 1.97 1.78 1.61 1.30 1.17 1.37 1.53 1.29 1.31 1.27 1.17 1.29 1.34 1.34 1.46 2.33 2.88 3.48 1.84 2.66 2.91 0.87 0.57 0.65 0.54 0.34 0.33 0.55 0.47 0.88 0.68 0.96 0.93 0.81 0.72 0.67 0.63 0.60 0.49 0.37 0.46 0.79 0.69 0.61 0.78 0.31 0.14 0.28 0.67 1.00 1.03 1.04 1.18
2.44 2.06 1.74 1.44 1.13 1.16 1.34 1.54 1.29 1.28 1.19 1.09 1.05 1.12 1.33 1.54 2.09 2.76 3.13 2.07 1.90 2.87 1.70 0.67 0.81 0.57 0.36 0.34 0.56 0.70 0.65 0.70 0.79 0.82 0.60 0.52 0.51 0.51 0.55 0.66 0.35 0.48 0.44 0.50 0.44 0.48 0.43 0.23 0.36 0.65 0.71 0.78 0.79 0.84
2.58 2.32 2.02 1.49 1.26 1.26 1.35 1.42 1.20 1.10 1.02 1.01 1.01 1.01 1.30 1.67 1.96 2.64 2.42 2.02 2.95 3.98 2.07 0.92 0.80 0.56 0.46 0.29 0.36 0.61 0.47 0.49 0.62 0.56 0.72 0.56 0.59 0.40 0.64 0.56 0.53 0.67 0.36 0.50 0.60 0.76 0.32 0.22 0.27 0.35 0.43 0.59 0.53 0.51
2.23 2.07 1.70 1.40 1.24 1.28 1.13 1.11 1.01 0.92 0.92 0.99 1.01 1.16 1.45 1.95 2.03 2.53 2.06 2.13 2.85 2.83 2.33 1.06 0.55 0.46 0.33 0.40 0.32 0.44 0.36 0.40 0.51 0.68 0.76 0.73 0.73 0.59 0.90 0.58 0.57 0.95 0.52 0.62 0.91 1.52 0.76 0.65 0.74 0.69 0.49 0.48 0.41 0.42
1.59 1.39 1.36 1.26 1.03 1.03 0.95 1.06 0.98 0.90 1.00 0.97 1.08 1.27 1.96 2.34 2.61 2.80 1.82 2.19 2.32 2.47 2.25 1.09 0.49 0.41 0.32 0.28 0.32 0.36 0.32 0.44 0.59 0.75 0.65 0.46 0.42 0.70 1.13 0.63 0.59 0.71 0.93 0.91 1.06 1.28 1.09 0.94 0.70 0.53 0.38 0.34 0.26 0.19
1.23 1.08 1.18 1.22 0.86 0.85 0.75 0.88 0.93 1.00 0.92 0.95 1.28 1.46 2.09 2.78 3.56 4.21 5.43 3.94 2.27 1.89 2.65 1.89 0.70 0.31 0.35 0.36 0.47 0.52 0.53 0.62 0.76 0.71 0.51 0.47 0.41 0.95 1.33 0.82 0.72 0.79 1.08 0.95 0.88 0.90 0.73 0.62 0.44 0.33 0.24 0.24 0.19 0.12
1.09 1.11 1.19 0.94 0.68 0.61 0.63 0.75 0.73 0.84 1.05 1.12 1.45 1.62 2.50 3.48 3.29 2.54 2.46 2.11 1.45 1.78 2.39 1.92 1.27 0.62 0.44 0.61 1.05 0.85 0.85 1.08 1.10 0.93 0.52 0.37 0.49 0.96 1.23 0.97 0.77 0.79 0.85 0.67 0.55 0.42 0.41 0.40 0.30 0.19 0.14 0.14 0.10 0.07
1.03 0.93 0.79 0.70 0.58 0.59 0.64 0.70 0.74 0.87 1.02 1.27 1.71 2.50 3.09 3.45 2.87 2.09 0.95 0.84 0.97 1.78 1.67 1.62 1.54 1.65 0.85 0.93 1.34 1.20 1.17 1.45 1.55 1.14 0.70 0.42 0.76 1.10 1.33 0.78 0.45 0.38 0.40 0.29 0.21 0.11 0.11 0.09 0.07 0.06 0.05 0.07 0.12 0.15
0.76 0.67 0.64 0.58 0.63 0.74 0.76 0.71 0.81 0.94 1.33 2.08 2.93 3.91 5.24 4.58 3.61 2.00 1.13 1.27 1.29 1.71 1.47 0.83 1.19 1.86 1.48 1.02 1.42 1.50 1.34 1.60 1.15 0.94 0.73 0.76 0.73 1.05 1.01 0.43 0.31 0.18 0.15 0.14 0.06 0.01 0.00 0.00 0.02 0.04 0.05 0.06 0.10 0.18
0.65 0.58 0.57 0.61 0.69 0.69 0.72 0.85 1.01 1.50 2.21 2.95 3.71 4.40 5.42 3.21 2.12 2.37 3.75 3.58 2.77 1.65 0.94 0.61 0.77 1.32 1.67 1.63 1.29 1.71 1.42 1.09 0.87 0.64 0.62 0.82 0.77 0.39 0.20 0.19 0.14 0.10 0.12 0.08 0.04 0.04 0.04 0.05 0.08 0.13 0.19 0.20 0.21 0.21
0.66 0.61 0.64 0.63 0.69 0.89 1.05 1.11 1.43 1.81 2.22 2.75 3.13 3.51 2.91 2.45 2.62 3.11 2.98 2.26 1.59 0.95 0.36 0.27 0.60 1.25 1.42 1.59 1.46 1.16 1.60 1.38 0.89 0.73 0.70 0.81 0.56 0.33 0.16 0.10 0.07 0.09 0.06 0.07 0.11 0.14 0.13 0.14 0.19 0.27 0.31 0.29 0.24 0.20
0.55 0.55 0.58 0.64 0.76 0.96 1.03 1.16 1.12 1.39 1.65 1.44 1.79 2.32 3.09 3.02 2.46 2.07 1.51 1.06 0.66 0.46 0.37 0.26 0.39 0.69 1.38 1.63 1.49 1.04 1.16 1.33 1.58 1.12 1.12 0.86 0.50 0.23 0.15 0.18 0.14 0.12 0.13 0.13 0.14 0.18 0.25 0.30 0.30 0.27 0.26 0.24 0.27 0.33
0.50 0.59 0.72 0.78 0.75 0.83 1.01 1.12 1.26 1.28 1.40 1.65 1.47 1.94 1.96 1.75 1.56 1.32 1.00 0.69 0.57 0.28 0.30 0.36 0.52 0.76 1.05 1.47 1.50 1.16 1.33 1.30 1.27 1.43 0.83 0.64 0.37 0.37 0.44 0.49 0.46 0.35 0.31 0.32 0.36 0.33 0.29 0.31 0.31 0.33 0.41 0.52 0.58 0.71
0.47 0.59 0.58 0.70 0.91 1.17 1.30 1.41 1.73 1.89 1.92 1.65 1.29 1.25 1.10 1.06 0.77 0.79 0.83 0.79 0.57 0.41 0.34 0.36 0.60 0.96 0.93 1.05 1.52 1.42 1.51 1.14 1.22 0.96 0.65 0.61 0.63 0.77 0.69 0.54 0.45 0.50 0.50 0.52 0.59 0.59 0.62 0.67 0.85 0.94 0.96 1.06 0.93 0.98
0.49 0.43 0.63 1.03 1.15 1.14 1.13 1.27 1.64 1.44 1.47 1.22 0.78 0.65 0.70 0.94 0.75 0.76 0.71 0.57 0.60 0.70 0.74 0.83 1.16 1.12 0.88 1.13 1.02 1.02 0.93 0.77 0.62 0.74 0.85 0.93 0.90 0.84 0.70 0.67 0.64 0.66 0.67 0.68 0.75 0.73 0.85 0.88 0.76 0.90 0.98 0.88 0.70 0.70
0.27 0.48 0.73 0.80 0.66 0.74 0.94 1.52 1.67 0.95 0.86 0.72 0.82 0.95 0.85 0.87 0.94 0.84 0.71 0.67 0.80 1.10 1.09 1.07 1.10 1.06 1.10 0.85 0.65 0.59 0.58 0.71 0.93 0.78 0.92 0.94 0.85 0.90 0.88 0.82 0.85 0.87 0.79 0.80 0.83 0.78 0.72 0.67 0.61 0.66 0.67 0.63 0.62 0.49
0.27 0.46 0.72 0.60 0.65 0.76 1.11 1.40 1.22 1.03 0.77 0.72 1.20 1.32 1.15 1.05 1.16 1.05 0.95 0.87 0.88 0.87 0.71 0.68 0.67 0.70 0.74 0.52 0.56 0.58 0.82 0.89 0.87 0.92 0.93 0.93 0.95 1.01 1.05 0.94 0.87 0.74 0.67 0.68 0.67 0.65 0.64 0.66 0.51 0.37 0.42 0.53 0.39 0.34
0.44 0.46 0.54 0.54 0.61 0.87 0.96 0.81 0.79 0.58 0.60 0.93 1.15 1.37 0.85 0.97 0.93 0.83 0.84 0.68 0.61 0.57 0.55 0.65 0.60 0.55 0.73 0.89 0.92 0.87 0.95 1.03 1.05 1.01 0.98 1.01 0.96 0.89 0.80 0.71 0.72 0.60 0.55 0.56 0.49 0.45 0.43 0.39 0.29 0.32 0.28 0.27 0.19 0.18
0.67 0.57 0.77 0.82 0.58 0.63 0.72 0.52 0.28 0.40 0.78 0.83 0.90 0.72 0.54 0.68 0.67 0.61 0.43 0.29 0.21 0.35 0.44 0.39 0.52 0.77 0.88 0.93 0.93 0.94 0.93 0.85 0.89 0.87 0.79 0.79 0.78 0.73 0.67 0.58 0.56 0.59 0.48 0.46 0.33 0.25 0.24 0.19 0.19 0.16 0.15 0.12 0.16 0.19
0.95 0.86 0.88 0.68 0.34 0.38 0.26 0.21 0.04 0.15 0.38 0.50 0.47 0.27 0.23 0.41 0.38 0.23 0.14 0.08 0.11 0.16 0.41 0.56 0.77 0.87 0.75 0.77 0.68 0.70 0.70 0.64 0.50 0.40 0.52 0.60 0.62 0.47 0.53 0.46 0.44 0.40 0.31 0.28 0.23 0.19 0.15 0.14 0.16 0.16 0.15 0.15 0.17 0.19
0.91 1.00 0.77 0.38 0.29 0.26 0.19 0.10 0.07 0.07 0.14 0.21 0.21 0.09 0.16 0.17 0.17 0.17 0.13 0.06 0.16 0.25 0.51 0.69 0.68 0.71 0.48 0.46 0.40 0.36 0.43 0.40 0.41 0.30 0.36 0.47 0.51 0.33 0.34 0.37 0.32 0.29 0.25 0.26 0.23 0.26 0.21 0.22 0.20 0.15 0.15 0.13 0.14 0.14
0.66 0.57 0.57 0.28 0.22 0.20 0.12 0.05 0.08 0.04 0.06 0.10 0.13 0.09 0.13 0.19 0.18 0.11 0.07 0.13 0.43 0.64 0.62 0.47 0.39 0.31 0.21 0.25 0.23 0.17 0.23 0.19 0.24 0.35 0.44 0.37 0.41 0.39 0.41 0.44 0.32 0.31 0.30 0.30 0.26 0.23 0.20 0.16 0.11 0.08 0.08 0.10 0.09 0.08
0.30 0.27 0.28 0.16 0.17 0.17 0.15 0.12 0.11 0.04 0.04 0.08 0.05 0.07 0.09 0.08 0.06 0.06 0.14 0.23 0.59 0.71 0.46 0.23 0.18 0.15 0.18 0.28 0.19 0.16 0.14 0.10 0.12 0.18 0.24 0.27 0.28 0.31 0.30 0.31 0.28 0.27 0.24 0.21 0.15 0.13 0.12 0.07 0.03 0.04 0.07 0.09 0.11 0.12
0.23 0.32 0.46 0.26 0.12 0.18 0.13 0.18 0.12 0.09 0.04 0.04 0.04 0.07 0.08 0.06 0.03 0.07 0.15 0.27 0.52 0.40 0.22 0.24 0.19 0.16 0.15 0.16 0.17 0.21 0.26 0.20 0.21 0.24 0.25 0.19 0.18 0.21 0.15 0.13 0.10 0.08 0.07 0.05 0.02 0.03 0.04 0.07 0.07 0.11 0.10 0.11 0.12 0.11
0.41 0.31 0.37 0.31 0.14 0.10 0.08 0.11 0.14 0.08 0.06 0.04 0.06 0.09 0.07 0.04 0.08 0.09 0.11 0.36 0.35 0.33 0.31 0.28 0.21 0.18 0.19 0.23 0.23 0.22 0.17 0.12 0.10 0.11 0.15 0.09 0.09 0.09 0.06 0.04 0.04 0.04 0.03 0.05 0.06 0.06 0.07 0.08 0.10 0.12 0.12 0.15 0.17 0.17
0.54 0.30 0.18 0.16 0.09 0.08 0.06 0.06 0.06 0.06 0.06 0.11 0.14 0.11 0.08 0.11 0.12 0.18 0.28 0.43 0.35 0.36 0.38 0.37 0.29 0.20 0.19 0.16 0.14 0.13 0.09 0.06 0.03 0.04 0.05 0.02 0.03 0.05 0.07 0.07 0.08 0.10 0.08 0.09 0.09 0.10 0.11 0.11 0.12 0.14 0.19 0.19 0.18 0.19
0.31 0.28 0.12 0.11 0.13 0.14 0.21 0.20 0.18 0.18 0.17 0.19 0.17 0.13 0.17 0.22 0.20 0.39 0.51 0.47 0.44 0.44 0.32 0.25 0.16 0.11 0.12 0.11 0.10 0.08 0.03 0.01 0.01 0.03 0.03 0.03 0.03 0.04 0.04 0.09 0.12 0.11 0.06 0.10 0.10 0.09 0.11 0.14 0.16 0.17 0.20 0.20 0.20 0.22
0.13 0.12 0.14 0.18 0.27 0.29 0.26 0.22 0.26 0.31 0.35 0.28 0.20 0.18 0.21 0.19 0.39 0.53 0.53 0.52 0.40 0.27 0.21 0.16 0.12 0.05 0.05 0.05 0.07 0.07 0.07 0.06 0.03 0.02 0.03 0.08 0.05 0.02 0.04 0.06 0.04 0.04 0.05 0.09 0.13 0.16 0.18 0.19 0.18 0.17 0.18 0.20 0.25 0.30
0.10 0.13 0.12 0.16 0.14 0.16 0.21 0.24 0.30 0.30 0.27 0.21 0.18 0.24 0.23 0.29 0.47 0.47 0.48 0.41 0.34 0.22 0.23 0.24 0.32 0.16 0.11 0.09 0.09 0.08 0.05 0.05 0.03 0.04 0.05 0.08 0.11 0.13 0.09 0.08 0.10 0.09 0.12 0.15 0.21 0.21 0.24 0.28 0.23 0.24 0.22 0.23 0.25 0.27
0.05 0.04 0.06 0.05 0.09 0.16 0.27 0.22 0.26 0.21 0.11 0.10 0.10 0.14 0.19 0.48 0.72 0.50 0.36 0.32 0.29 0.27 0.24 0.20 0.20 0.15 0.15 0.13 0.16 0.18 0.19 0.13 0.08 0.08 0.08 0.08 0.08 0.10 0.09 0.08 0.08 0.09 0.10 0.10 0.13 0.21 0.22 0.24 0.27 0.28 0.21 0.22 0.24 0.23
0.04 0.07 0.07 0.07 0.16 0.24 0.24 0.15 0.14 0.13 0.13 0.12 0.11 0.11 0.22 0.41 0.45 0.43 0.33 0.35 0.28 0.18 0.16 0.20 0.20 0.17 0.16 0.15 0.12 0.08 0.15 0.14 0.09 0.07 0.04 0.05 0.07 0.08 0.09 0.08 0.08 0.09 0.11 0.14 0.13 0.15 0.18 0.18 0.20 0.20 0.16 0.15 0.17 0.15
0.11 0.13 0.10 0.14 0.28 0.25 0.26 0.25 0.19 0.23 0.17 0.14 0.15 0.13 0.19 0.16 0.19 0.24 0.24 0.29 0.28 0.20 0.19 0.18 0.23 0.30 0.21 0.22 0.18 0.15 0.11 0.10 0.08 0.06 0.06 0.08 0.10 0.09 0.07 0.07 0.08 0.09 0.11 0.10 0.12 0.16 0.16 0.15 0.18 0.18 0.18 0.17 0.16 0.15
0.11 0.08 0.10 0.12 0.16 0.19 0.21 0.21 0.16 0.14 0.15 0.17 0.22 0.24 0.25 0.20 0.19 0.24 0.22 0.22 0.35 0.25 0.20 0.19 0.21 0.25 0.24 0.19 0.18 0.18 0.19 0.19 0.16 0.13 0.12 0.12 0.10 0.09 0.08 0.09 0.08 0.08 0.06 0.07 0.11 0.14 0.14 0.13 0.15 0.15 0.14 0.13 0.13 0.11

GFSWCAN_prec_precacc_153.txt.gz
Total_Precipitation_Accumulation
2.02 2.00 1.82 1.65 1.33 1.18 1.39 1.56 1.33 1.34 1.30 1.21 1.33 1.41 1.47 1.58 2.38 2.93 3.49 1.84 2.66 2.91 0.87 0.57 0.65 0.54 0.36 0.40 0.65 0.52 0.93 0.72 0.98 0.94 0.91 0.94 0.85 0.78 0.67 0.50 0.37 0.50 0.87 0.75 0.64 0.83 0.32 0.14 0.28 0.67 1.00 1.03 1.04 1.18
2.50 2.11 1.78 1.47 1.15 1.18 1.36 1.56 1.33 1.31 1.23 1.14 1.10 1.19 1.42 1.65 2.15 2.80 3.13 2.08 1.92 2.89 1.71 0.68 0.82 0.57 0.37 0.37 0.69 0.77 0.71 0.71 0.79 0.83 0.62 0.55 0.64 0.69 0.76 0.82 0.42 0.49 0.45 0.51 0.44 0.49 0.43 0.23 0.36 0.65 0.71 0.78 0.79 0.84
2.63 2.36 2.06 1.52 1.28 1.27 1.37 1.46 1.25 1.14 1.06 1.06 1.08 1.09 1.37 1.72 1.99 2.67 2.42 2.02 2.99 4.04 2.11 0.92 0.80 0.57 0.54 0.35 0.50 0.90 0.53 0.50 0.62 0.56 0.73 0.60 0.61 0.42 0.68 0.62 0.61 0.72 0.38 0.52 0.61 0.77 0.33 0.22 0.27 0.35 0.43 0.59 0.53 0.51
2.29 2.10 1.73 1.45 1.27 1.30 1.16 1.16 1.07 0.99 0.98 1.03 1.06 1.21 1.50 1.98 2.06 2.57 2.06 2.13 2.87 2.88 2.35 1.06 0.57 0.49 0.55 0.62 0.46 0.63 0.64 0.47 0.54 0.71 0.78 0.73 0.73 0.59 0.90 0.58 0.58 0.95 0.53 0.62 0.91 1.52 0.77 0.65 0.74 0.69 0.49 0.48 0.41 0.42
1.62 1.41 1.39 1.34 1.07 1.07 1.01 1.12 1.06 0.96 1.06 1.01 1.10 1.29 1.98 2.35 2.64 2.87 1.84 2.20 2.34 2.50 2.30 1.12 0.50 0.45 0.46 0.63 0.47 0.45 0.53 0.64 0.61 0.77 0.65 0.46 0.42 0.70 1.13 0.63 0.59 0.71 0.93 0.91 1.06 1.28 1.09 0.94 0.70 0.53 0.38 0.34 0.26 0.19
1.25 1.10 1.22 1.27 0.93 0.92 0.83 0.94 0.97 1.04 0.96 0.98 1.30 1.47 2.10 2.81 3.62 4.28 5.53 3.95 2.27 1.90 2.74 2.04 0.73 0.32 0.40 0.48 0.54 0.59 0.65 0.91 0.85 0.71 0.51 0.47 0.41 0.95 1.33 0.82 0.72 0.79 1.08 0.95 0.88 0.90 0.73 0.62 0.44 0.33 0.24 0.24 0.19 0.12
1.12 1.16 1.26 1.01 0.75 0.66 0.65 0.76 0.74 0.85 1.05 1.13 1.46 1.62 2.52 3.52 3.32 2.58 2.50 2.12 1.45 1.80 2.58 2.37 1.45 0.70 0.45 0.62 1.06 0.87 0.87 1.10 1.12 0.93 0.52 0.37 0.49 0.96 1.23 0.97 0.77 0.79 0.85 0.67 0.55 0.42 0.41 0.40 0.30 0.19 0.14 0.14 0.10 0.07
1.12 1.01 0.81 0.71 0.58 0.59 0.64 0.70 0.74 0.87 1.02 1.27 1.72 2.51 3.12 3.49 2.88 2.09 0.96 0.87 0.97 1.81 1.85 1.95 1.72 1.86 0.88 0.93 1.34 1.20 1.17 1.45 1.55 1.14 0.70 0.42 0.76 1.10 1.33 0.78 0.45 0.38 0.40 0.29 0.21 0.11 0.11 0.09 0.07 0.06 0.05 0.07 0.12 0.15
0.77 0.67 0.64 0.58 0.63 0.74 0.76 0.71 0.81 0.95 1.34 2.10 3.00 4.06 5.40 4.73 3.69 2.02 1.13 1.29 1.31 1.78 1.63 0.90 1.21 1.93 1.50 1.02 1.42 1.50 1.34 1.60 1.15 0.94 0.73 0.76 0.73 1.05 1.01 0.43 0.31 0.18 0.15 0.14 0.06 0.01 0.00 0.00 0.02 0.04 0.05 0.06 0.10 0.18
0.65 0.58 0.57 0.61 0.69 0.69 0.73 0.85 1.02 1.53 2.27 3.10 3.97 4.65 5.75 3.42 2.21 2.52 4.05 3.84 2.96 1.79 1.17 0.70 0.77 1.32 1.67 1.63 1.29 1.71 1.42 1.09 0.87 0.64 0.62 0.82 0.77 0.39 0.20 0.19 0.14 0.10 0.12 0.08 0.04 0.04 0.04 0.05 0.08 0.14 0.19 0.20 0.22 0.21
0.66 0.61 0.64 0.63 0.70 0.90 1.06 1.13 1.46 1.88 2.33 2.92 3.30 3.83 3.21 2.66 2.83 3.35 3.22 2.44 1.70 0.99 0.40 0.30 0.60 1.25 1.42 1.59 1.46 1.16 1.60 1.38 0.89 0.73 0.70 0.81 0.56 0.33 0.16 0.10 0.07 0.09 0.06 0.07 0.11 0.14 0.14 0.16 0.19 0.27 0.32 0.31 0.27 0.22
0.55 0.55 0.58 0.65 0.78 0.98 1.04 1.16 1.14 1.42 1.67 1.46 1.82 2.35 3.14 3.06 2.49 2.08 1.53 1.06 0.66 0.46 0.37 0.26 0.39 0.69 1.38 1.63 1.49 1.04 1.16 1.33 1.58 1.12 1.13 0.86 0.50 0.23 0.15 0.18 0.14 0.12 0.13 0.13 0.14 0.18 0.26 0.32 0.32 0.28 0.26 0.26 0.30 0.35
0.51 0.60 0.72 0.79 0.75 0.83 1.01 1.12 1.26 1.28 1.40 1.65 1.47 1.94 1.96 1.75 1.56 1.32 1.00 0.69 0.57 0.28 0.30 0.36 0.52 0.76 1.05 1.47 1.50 1.16 1.33 1.30 1.27 1.44 0.84 0.64 0.37 0.37 0.44 0.49 0.47 0.36 0.31 0.32 0.36 0.33 0.29 0.32 0.32 0.34 0.42 0.53 0.59 0.71
0.47 0.59 0.58 0.70 0.91 1.17 1.30 1.41 1.73 1.89 1.92 1.65 1.29 1.25 1.10 1.06 0.77 0.79 0.83 0.79 0.57 0.41 0.34 0.36 0.60 0.96 0.93 1.05 1.52 1.42 1.51 1.14 1.22 0.96 0.65 0.61 0.63 0.77 0.69 0.54 0.45 0.50 0.50 0.52 0.59 0.59 0.62 0.68 0.85 0.94 0.96 1.06 0.93 0.98
0.49 0.43 0.63 1.03 1.15 1.14 1.13 1.27 1.64 1.44 1.47 1.22 0.78 0.65 0.70 0.94 0.75 0.76 0.71 0.57 0.60 0.70 0.74 0.83 1.16 1.13 0.89 1.13 1.02 1.02 0.93 0.77 0.62 0.74 0.85 0.93 0.90 0.84 0.70 0.67 0.64 0.66 0.67 0.68 0.75 0.73 0.85 0.88 0.76 0.90 0.98 0.88 0.70 0.70
0.27 0.48 0.73 0.80 0.66 0.74 0.94 1.52 1.67 0.95 0.86 0.72 0.82 0.95 0.85 0.87 0.94 0.84 0.71 0.67 0.81 1.11 1.09 1.07 1.11 1.07 1.10 0.85 0.65 0.59 0.58 0.71 0.93 0.78 0.92 0.94 0.85 0.90 0.88 0.82 0.85 0.87 0.79 0.80 0.83 0.79 0.74 0.69 0.62 0.67 0.67 0.63 0.62 0.49
0.27 0.46 0.72 0.60 0.65 0.76 1.11 1.40 1.22 1.03 0.77 0.72 1.20 1.35 1.16 1.06 1.16 1.05 0.95 0.87 0.88 0.88 0.72 0.68 0.67 0.70 0.74 0.52 0.56 0.58 0.82 0.89 0.87 0.92 0.93 0.93 0.95 1.01 1.05 0.94 0.87 0.74 0.67 0.68 0.67 0.65 0.64 0.66 0.51 0.37 0.42 0.53 0.39 0.34
0.44 0.46 0.54 0.54 0.61 0.87 0.96 0.81 0.79 0.58 0.60 0.94 1.18 1.40 0.87 0.99 0.95 0.84 0.84 0.68 0.61 0.57 0.55 0.65 0.60 0.55 0.73 0.89 0.92 0.87 0.95 1.03 1.05 1.01 0.98 1.01 0.96 0.89 0.80 0.71 0.72 0.60 0.55 0.56 0.49 0.45 0.43 0.39 0.29 0.32 0.28 0.27 0.19 0.18
0.67 0.57 0.77 0.82 0.58 0.63 0.72 0.52 0.28 0.40 0.78 0.83 0.90 0.72 0.54 0.68 0.68 0.61 0.43 0.29 0.21 0.36 0.46 0.39 0.52 0.78 0.89 0.93 0.94 0.95 0.94 0.86 0.89 0.87 0.79 0.79 0.78 0.73 0.68 0.58 0.56 0.59 0.48 0.46 0.33 0.25 0.24 0.19 0.19 0.16 0.15 0.12 0.16 0.19
0.95 0.86 0.88 0.68 0.34 0.38 0.26 0.21 0.04 0.15 0.38 0.50 0.47 0.27 0.23 0.41 0.38 0.23 0.14 0.08 0.11 0.18 0.53 0.61 0.77 0.88 0.81 0.80 0.69 0.70 0.70 0.64 0.50 0.40 0.52 0.60 0.62 0.47 0.53 0.46 0.44 0.40 0.31 0.28 0.23 0.19 0.15 0.15 0.17 0.16 0.15 0.15 0.17 0.19
0.91 1.00 0.77 0.38 0.29 0.26 0.19 0.10 0.07 0.07 0.14 0.21 0.21 0.09 0.16 0.17 0.17 0.17 0.13 0.06 0.19 0.26 0.52 0.69 0.68 0.71 0.48 0.46 0.40 0.36 0.43 0.40 0.41 0.30 0.36 0.47 0.51 0.33 0.34 0.37 0.32 0.29 0.25 0.26 0.23 0.26 0.21 0.22 0.20 0.15 0.15 0.13 0.14 0.14
0.66 0.57 0.57 0.28 0.22 0.20 0.12 0.05 0.08 0.04 0.06 0.10 0.13 0.09 0.13 0.19 0.18 0.12 0.07 0.15 0.45 0.64 0.62 0.47 0.39 0.31 0.21 0.25 0.23 0.17 0.23 0.19 0.24 0.35 0.44 0.37 0.41 0.40 0.42 0.44 0.32 0.32 0.30 0.30 0.26 0.23 0.20 0.16 0.11 0.08 0.08 0.10 0.09 0.09
0.30 0.27 0.28 0.16 0.17 0.17 0.15 0.12 0.11 0.04 0.04 0.08 0.05 0.07 0.09 0.08 0.06 0.07 0.15 0.23 0.59 0.71 0.46 0.23 0.18 0.15 0.18 0.28 0.19 0.16 0.14 0.10 0.12 0.18 0.24 0.27 0.28 0.32 0.30 0.31 0.28 0.27 0.24 0.21 0.15 0.13 0.12 0.07 0.03 0.04 0.07 0.09 0.11 0.13
0.23 0.32 0.46 0.26 0.12 0.18 0.13 0.18 0.12 0.09 0.04 0.04 0.04 0.07 0.08 0.07 0.04 0.08 0.15 0.27 0.52 0.40 0.22 0.25 0.19 0.16 0.15 0.16 0.17 0.21 0.26 0.20 0.21 0.24 0.25 0.19 0.19 0.22 0.15 0.13 0.10 0.08 0.07 0.06 0.03 0.04 0.04 0.08 0.08 0.12 0.11 0.11 0.12 0.12
0.41 0.31 0.37 0.31 0.14 0.10 0.08 0.11 0.14 0.08 0.06 0.04 0.06 0.09 0.07 0.04 0.09 0.09 0.11 0.37 0.35 0.33 0.31 0.29 0.22 0.19 0.19 0.23 0.23 0.22 0.17 0.12 0.10 0.11 0.15 0.09 0.09 0.09 0.07 0.05 0.05 0.05 0.03 0.06 0.07 0.07 0.07 0.09 0.11 0.12 0.13 0.15 0.17 0.18
0.54 0.30 0.18 0.16 0.09 0.08 0.06 0.06 0.07 0.06 0.06 0.11 0.14 0.11 0.08 0.11 0.12 0.18 0.31 0.45 0.37 0.38 0.41 0.39 0.31 0.22 0.20 0.16 0.15 0.13 0.09 0.06 0.03 0.04 0.05 0.02 0.03 0.05 0.07 0.08 0.09 0.11 0.08 0.09 0.10 0.10 0.11 0.11 0.13 0.15 0.19 0.19 0.18 0.19
0.31 0.28 0.12 0.11 0.13 0.14 0.21 0.20 0.18 0.18 0.17 0.19 0.18 0.13 0.17 0.22 0.20 0.41 0.52 0.48 0.44 0.45 0.32 0.25 0.17 0.13 0.14 0.12 0.10 0.08 0.03 0.01 0.01 0.03 0.03 0.03 0.03 0.04 0.04 0.09 0.12 0.11 0.06 0.10 0.10 0.09 0.11 0.14 0.16 0.18 0.20 0.21 0.20 0.22
0.13 0.12 0.14 0.18 0.27 0.29 0.26 0.22 0.26 0.31 0.35 0.29 0.21 0.19 0.21 0.19 0.39 0.53 0.53 0.52 0.40 0.27 0.21 0.17 0.13 0.07 0.07 0.08 0.09 0.08 0.07 0.06 0.03 0.02 0.04 0.08 0.05 0.02 0.04 0.06 0.04 0.04 0.05 0.09 0.13 0.16 0.18 0.19 0.18 0.17 0.18 0.21 0.25 0.30
0.10 0.13 0.12 0.16 0.14 0.16 0.21 0.24 0.30 0.30 0.27 0.22 0.19 0.24 0.23 0.29 0.47 0.47 0.48 0.41 0.34 0.22 0.23 0.24 0.33 0.17 0.14 0.14 0.14 0.09 0.06 0.05 0.03 0.05 0.05 0.08 0.12 0.13 0.09 0.08 0.10 0.10 0.12 0.15 0.21 0.21 0.24 0.28 0.23 0.24 0.22 0.23 0.26 0.28
0.05 0.04 0.06 0.05 0.09 0.16 0.27 0.22 0.26 0.21 0.11 0.10 0.11 0.14 0.19 0.48 0.72 0.50 0.36 0.32 0.29 0.27 0.24 0.20 0.20 0.16 0.16 0.16 0.18 0.22 0.21 0.14 0.08 0.08 0.08 0.08 0.08 0.10 0.09 0.08 0.08 0.09 0.11 0.11 0.14 0.21 0.23 0.25 0.28 0.29 0.21 0.22 0.24 0.24
0.04 0.07 0.07 0.07 0.16 0.24 0.24 0.15 0.14 0.13 0.13 0.12 0.11 0.11 0.22 0.41 0.45 0.43 0.33 0.35 0.28 0.18 0.16 0.20 0.20 0.18 0.18 0.19 0.15 0.11 0.17 0.15 0.09 0.07 0.04 0.05 0.07 0.08 0.09 0.08 0.08 0.09 0.12 0.14 0.13 0.15 0.19 0.19 0.22 0.22 0.18 0.16 0.19 0.16
0.11 0.13 0.10 0.14 0.28 0.25 0.26 0.25 0.20 0.23 0.17 0.14 0.15 0.13 0.19 0.16 0.19 0.24 0.24 0.29 0.28 0.20 0.19 0.19 0.24 0.31 0.21 0.23 0.21 0.17 0.12 0.10 0.08 0.06 0.06 0.08 0.10 0.09 0.07 0.07 0.08 0.09 0.11 0.11 0.12 0.16 0.17 0.17 0.20 0.20 0.20 0.19 0.18 0.16
0.11 0.08 0.10 0.12 0.16 0.19 0.24 0.24 0.17 0.14 0.15 0.17 0.22 0.24 0.25 0.20 0.19 0.24 0.23 0.22 0.35 0.26 0.20 0.19 0.22 0.26 0.24 0.20 0.18 0.18 0.19 0.19 0.16 0.14 0.13 0.13 0.10 0.09 0.08 0.09 0.09 0.08 0.07 0.08 0.12 0.15 0.16 0.15 0.17 0.17 0.16 0.15 0.15 0.13

GFSWCAN_prec_precacc_156.txt.gz
Total_Precipitation_Accumulation
2.04 2.03 1.85 1.68 1.35 1.21 1.41 1.58 1.35 1.37 1.34 1.25 1.37 1.45 1.51 1.62 2.43 2.98 3.50 1.85 2.67 2.93 0.87 0.57 0.65 0.54 0.36 0.42 0.69 0.58 1.08 0.84 1.08 1.03 0.95 1.06 0.95 0.81 0.70 0.50 0.37 0.51 0.91 0.79 0.67 0.88 0.35 0.14 0.28 0.67 1.00 1.03 1.04 1.18
2.54 2.16 1.81 1.50 1.19 1.21 1.38 1.59 1.36 1.34 1.26 1.18 1.14 1.23 1.46 1.71 2.29 2.96 3.26 2.08 1.92 2.91 1.71 0.68 0.82 0.57 0.38 0.38 0.71 0.82 0.88 0.90 0.94 0.94 0.63 0.55 0.66 0.72 0.79 0.86 0.46 0.56 0.47 0.54 0.47 0.51 0.43 0.23 0.36 0.65 0.71 0.78 0.79 0.84
2.67 2.41 2.13 1.57 1.34 1.33 1.42 1.49 1.27 1.17 1.10 1.09 1.11 1.13 1.42 1.80 2.13 2.98 2.63 2.04 3.03 4.10 2.13 0.92 0.80 0.57 0.54 0.36 0.51 0.91 0.53 0.56 0.72 0.65 0.78 0.60 0.61 0.42 0.69 0.63 0.63 0.82 0.47 0.62 0.63 0.77 0.33 0.22 0.27 0.35 0.43 0.59 0.53 0.51
2.34 2.15 1.78 1.54 1.33 1.37 1.22 1.20 1.09 1.01 1.02 1.08 1.12 1.31 1.58 2.07 2.19 2.79 2.15 2.16 2.89 2.90 2.38 1.06 0.57 0.49 0.55 0.62 0.47 0.63 0.64 0.53 0.62 0.83 0.92 0.75 0.73 0.59 0.90 0.59 0.58 0.96 0.59 0.77 0.97 1.53 0.77 0.65 0.74 0.69 0.49 0.48 0.41 0.42
1.66 1.45 1.44 1.39 1.12 1.12 1.04 1.14 1.09 1.00 1.13 1.08 1.18 1.41 2.14 2.48 2.77 3.02 1.88 2.20 2.34 2.51 2.32 1.15 0.51 0.45 0.47 0.64 0.53 0.55 0.65 0.79 0.89 0.93 0.81 0.49 0.42 0.70 1.13 0.63 0.59 0.71 0.93 0.91 1.06 1.28 1.09 0.94 0.70 0.53 0.38 0.34 0.26 0.19
1.26 1.13 1.27 1.32 0.96 0.94 0.87 1.00 1.07 1.12 1.09 1.10 1.40 1.53 2.23 2.94 3.75 4.35 5.59 3.96 2.28 1.92 2.76 2.06 0.76 0.35 0.41 0.54 0.72 0.89 0.96 1.12 1.18 1.01 0.59 0.48 0.41 0.95 1.33 0.82 0.72 0.79 1.08 0.95 0.88 0.90 0.73 0.62 0.44 0.33 0.24 0.24 0.19 0.12
1.13 1.18 1.30 1.07 0.82 0.74 0.76 0.88 0.88 0.93 1.16 1.28 1.55 1.67 2.56 3.57 3.34 2.58 2.51 2.12 1.45 1.81 2.65 2.42 1.60 0.79 0.46 0.63 1.09 1.04 1.20 1.47 1.50 1.19 0.61 0.37 0.49 0.96 1.23 0.97 0.77 0.79 0.85 0.67 0.55 0.42 0.41 0.40 0.30 0.19 0.14 0.14 0.10 0.07
1.15 1.05 0.89 0.78 0.63 0.63 0.67 0.72 0.75 0.88 1.04 1.31 1.74 2.54 3.16 3.52 2.89 2.09 0.97 0.88 0.98 1.82 1.88 2.06 1.99 2.28 0.93 0.95 1.37 1.22 1.23 1.52 1.62 1.23 0.72 0.42 0.76 1.10 1.33 0.78 0.45 0.38 0.40 0.29 0.21 0.11 0.11 0.09 0.07 0.06 0.05 0.07 0.12 0.15
0.77 0.67 0.65 0.58 0.63 0.74 0.76 0.71 0.81 0.95 1.35 2.11 3.02 4.09 5.44 4.76 3.69 2.02 1.13 1.33 1.37 1.80 1.69 0.99 1.41 2.38 1.59 1.04 1.42 1.51 1.34 1.60 1.15 0.95 0.73 0.76 0.73 1.05 1.01 0.43 0.31 0.18 0.15 0.14 0.06 0.01 0.00 0.00 0.02 0.04 0.05 0.06 0.10 0.18
0.65 0.58 0.57 0.61 0.69 0.69 0.73 0.85 1.02 1.54 2.30 3.12 3.99 4.66 5.76 3.43 2.21 2.53 4.06 3.86 3.02 1.83 1.24 0.81 0.84 1.40 1.73 1.65 1.30 1.71 1.42 1.09 0.87 0.64 0.62 0.82 0.77 0.39 0.20 0.19 0.14 0.10 0.12 0.08 0.04 0.04 0.04 0.05 0.08 0.14 0.21 0.23 0.25 0.24
0.66 0.61 0.64 0.64 0.70 0.91 1.10 1.18 1.53 2.02 2.51 3.05 3.41 3.98 3.32 2.71 2.86 3.41 3.34 2.52 1.79 1.01 0.41 0.43 0.73 1.29 1.42 1.59 1.46 1.16 1.60 1.38 0.89 0.73 0.70 0.81 0.56 0.33 0.16 0.10 0.07 0.09 0.06 0.07 0.11 0.14 0.14 0.16 0.19 0.27 0.32 0.33 0.31 0.28
0.55 0.56 0.59 0.66 0.80 1.02 1.09 1.24 1.23 1.51 1.79 1.63 2.07 2.55 3.28 3.15 2.55 2.18 1.69 1.12 0.69 0.46 0.37 0.33 0.44 0.70 1.38 1.63 1.49 1.04 1.16 1.33 1.58 1.13 1.13 0.86 0.50 0.23 0.15 0.18 0.14 0.12 0.13 0.13 0.14 0.18 0.26 0.32 0.33 0.29 0.27 0.27 0.33 0.40
0.51 0.60 0.73 0.79 0.75 0.85 1.03 1.15 1.29 1.29 1.42 1.67 1.48 1.96 1.98 1.77 1.58 1.35 1.01 0.69 0.57 0.28 0.30 0.36 0.52 0.76 1.05 1.47 1.50 1.16 1.33 1.30 1.27 1.44 0.84 0.64 0.37 0.37 0.44 0.49 0.47 0.36 0.31 0.32 0.36 0.33 0.29 0.32 0.33 0.34 0.42 0.53 0.60 0.73
0.47 0.59 0.58 0.70 0.91 1.17 1.30 1.41 1.73 1.89 1.92 1.65 1.29 1.25 1.10 1.06 0.77 0.79 0.83 0.79 0.57 0.41 0.34 0.36 0.60 0.96 0.93 1.05 1.52 1.42 1.51 1.14 1.23 0.96 0.65 0.61 0.63 0.77 0.69 0.54 0.45 0.50 0.50 0.52 0.59 0.59 0.62 0.68 0.85 0.94 0.97 1.06 0.93 0.98
0.49 0.43 0.63 1.03 1.15 1.14 1.13 1.27 1.64 1.44 1.47 1.22 0.78 0.65 0.70 0.94 0.75 0.76 0.71 0.57 0.60 0.70 0.74 0.83 1.16 1.13 0.89 1.13 1.02 1.02 0.93 0.77 0.63 0.74 0.85 0.93 0.90 0.85 0.71 0.67 0.64 0.66 0.67 0.68 0.75 0.73 0.85 0.88 0.76 0.90 0.98 0.90 0.71 0.70
0.27 0.48 0.73 0.80 0.66 0.74 0.94 1.52 1.67 0.95 0.86 0.72 0.82 0.95 0.85 0.87 0.94 0.84 0.71 0.67 0.81 1.11 1.09 1.07 1.11 1.07 1.10 0.85 0.65 0.59 0.58 0.71 0.93 0.78 0.92 0.94 0.85 0.90 0.88 0.82 0.85 0.87 0.79 0.80 0.83 0.79 0.75 0.71 0.65 0.70 0.69 0.64 0.63 0.49
0.27 0.46 0.72 0.60 0.65 0.76 1.11 1.40 1.22 1.03 0.77 0.72 1.20 1.35 1.16 1.06 1.16 1.05 0.95 0.87 0.88 0.88 0.72 0.68 0.67 0.70 0.74 0.52 0.56 0.58 0.82 0.89 0.87 0.92 0.93 0.93 0.95 1.01 1.05 0.94 0.87 0.74 0.67 0.68 0.67 0.65 0.65 0.67 0.52 0.39 0.43 0.53 0.40 0.34
0.44 0.46 0.54 0.54 0.61 0.87 0.96 0.81 0.79 0.58 0.60 0.94 1.18 1.40 0.87 1.00 0.95 0.84 0.84 0.68 0.61 0.57 0.55 0.65 0.60 0.55 0.73 0.89 0.92 0.87 0.95 1.03 1.05 1.01 0.98 1.01 0.96 0.89 0.80 0.71 0.72 0.60 0.55 0.56 0.49 0.45 0.43 0.39 0.29 0.32 0.28 0.27 0.19 0.18
0.67 0.57 0.77 0.82 0.58 0.63 0.72 0.52 0.28 0.40 0.78 0.83 0.90 0.72 0.54 0.68 0.68 0.62 0.43 0.29 0.21 0.36 0.47 0.40 0.52 0.78 0.89 0.93 0.94 0.95 0.94 0.86 0.89 0.87 0.79 0.79 0.78 0.73 0.68 0.58 0.56 0.59 0.48 0.46 0.33 0.25 0.24 0.19 0.19 0.16 0.15 0.12 0.16 0.20
0.95 0.86 0.88 0.68 0.34 0.38 0.26 0.21 0.04 0.15 0.38 0.50 0.47 0.27 0.23 0.41 0.38 0.23 0.15 0.09 0.12 0.20 0.55 0.61 0.77 0.88 0.81 0.80 0.69 0.70 0.70 0.64 0.51 0.41 0.52 0.60 0.62 0.47 0.53 0.46 0.44 0.40 0.31 0.28 0.23 0.19 0.15 0.15 0.17 0.16 0.15 0.15 0.17 0.19
0.91 1.00 0.77 0.38 0.29 0.26 0.19 0.10 0.07 0.07 0.14 0.21 0.21 0.09 0.16 0.17 0.17 0.17 0.13 0.08 0.23 0.29 0.53 0.69 0.68 0.71 0.48 0.46 0.40 0.36 0.43 0.40 0.41 0.30 0.36 0.47 0.51 0.33 0.34 0.37 0.33 0.29 0.25 0.26 0.24 0.26 0.21 0.22 0.20 0.15 0.15 0.13 0.14 0.14
0.66 0.57 0.57 0.28 0.22 0.20 0.12 0.05 0.08 0.04 0.06 0.10 0.13 0.09 0.13 0.19 0.18 0.12 0.08 0.17 0.47 0.64 0.62 0.47 0.39 0.31 0.22 0.25 0.23 0.17 0.23 0.19 0.24 0.35 0.44 0.37 0.41 0.40 0.42 0.45 0.32 0.32 0.30 0.30 0.26 0.23 0.20 0.16 0.12 0.08 0.08 0.10 0.09 0.09
0.30 0.27 0.28 0.16 0.17 0.17 0.15 0.12 0.11 0.04 0.04 0.08 0.05 0.07 0.09 0.08 0.06 0.08 0.17 0.23 0.59 0.71 0.46 0.23 0.18 0.15 0.18 0.29 0.19 0.16 0.14 0.10 0.12 0.18 0.24 0.27 0.28 0.32 0.31 0.32 0.29 0.27 0.25 0.22 0.15 0.13 0.12 0.07 0.03 0.04 0.07 0.09 0.12 0.14
0.23 0.32 0.46 0.26 0.13 0.18 0.13 0.18 0.12 0.09 0.05 0.04 0.04 0.07 0.08 0.08 0.07 0.09 0.16 0.27 0.52 0.40 0.22 0.26 0.23 0.19 0.18 0.17 0.17 0.21 0.26 0.20 0.21 0.24 0.25 0.19 0.19 0.22 0.16 0.15 0.12 0.09 0.08 0.06 0.03 0.04 0.05 0.08 0.09 0.13 0.11 0.11 0.12 0.13
0.41 0.31 0.37 0.31 0.14 0.10 0.08 0.11 0.14 0.08 0.06 0.04 0.06 0.09 0.07 0.04 0.11 0.11 0.12 0.38 0.37 0.34 0.32 0.31 0.30 0.29 0.27 0.27 0.26 0.23 0.17 0.12 0.10 0.11 0.15 0.09 0.10 0.11 0.09 0.06 0.06 0.06 0.04 0.06 0.08 0.07 0.07 0.09 0.12 0.14 0.14 0.15 0.17 0.19
0.54 0.30 0.18 0.16 0.10 0.08 0.06 0.06 0.07 0.06 0.07 0.11 0.14 0.11 0.08 0.11 0.12 0.18 0.33 0.47 0.40 0.40 0.42 0.41 0.34 0.26 0.23 0.20 0.19 0.16 0.10 0.06 0.03 0.04 0.05 0.02 0.03 0.05 0.08 0.08 0.09 0.12 0.09 0.09 0.10 0.10 0.11 0.11 0.13 0.15 0.20 0.20 0.19 0.20
0.31 0.29 0.12 0.11 0.13 0.14 0.21 0.20 0.18 0.18 0.18 0.19 0.18 0.13 0.17 0.22 0.20 0.41 0.54 0.49 0.44 0.45 0.32 0.25 0.17 0.14 0.15 0.16 0.14 0.10 0.04 0.01 0.01 0.03 0.03 0.04 0.04 0.04 0.05 0.09 0.12 0.11 0.06 0.10 0.10 0.09 0.12 0.14 0.16 0.18 0.20 0.21 0.21 0.22
0.13 0.12 0.14 0.18 0.27 0.29 0.26 0.22 0.26 0.31 0.35 0.30 0.22 0.20 0.21 0.19 0.39 0.54 0.53 0.52 0.40 0.27 0.21 0.17 0.13 0.07 0.08 0.11 0.14 0.10 0.07 0.06 0.03 0.02 0.04 0.09 0.05 0.02 0.04 0.06 0.04 0.04 0.05 0.09 0.13 0.16 0.18 0.19 0.18 0.17 0.18 0.21 0.25 0.31
0.13 0.14 0.13 0.16 0.14 0.16 0.21 0.24 0.30 0.30 0.27 0.22 0.20 0.25 0.23 0.29 0.47 0.47 0.48 0.41 0.34 0.22 0.23 0.24 0.33 0.17 0.14 0.15 0.19 0.16 0.07 0.05 0.04 0.06 0.05 0.08 0.12 0.13 0.09 0.08 0.10 0.10 0.12 0.15 0.21 0.21 0.24 0.28 0.23 0.24 0.22 0.23 0.26 0.28
0.07 0.05 0.08 0.06 0.10 0.17 0.27 0.22 0.26 0.21 0.11 0.10 0.12 0.15 0.19 0.48 0.72 0.50 0.36 0.32 0.29 0.27 0.24 0.20 0.20 0.16 0.17 0.16 0.20 0.27 0.27 0.18 0.12 0.11 0.10 0.08 0.09 0.10 0.09 0.08 0.08 0.10 0.12 0.13 0.15 0.22 0.24 0.25 0.29 0.29 0.21 0.23 0.25 0.24
0.05 0.10 0.09 0.08 0.17 0.24 0.24 0.15 0.14 0.13 0.13 0.12 0.11 0.11 0.22 0.41 0.45 0.43 0.33 0.35 0.28 0.18 0.16 0.20 0.20 0.18 0.19 0.19 0.16 0.14 0.21 0.19 0.12 0.08 0.05 0.06 0.07 0.08 0.09 0.08 0.08 0.10 0.13 0.16 0.14 0.16 0.19 0.20 0.23 0.23 0.19 0.17 0.19 0.16
0.11 0.15 0.11 0.14 0.29 0.25 0.26 0.26 0.20 0.23 0.17 0.14 0.15 0.13 0.19 0.16 0.19 0.24 0.25 0.29 0.28 0.20 0.20 0.19 0.24 0.31 0.22 0.24 0.23 0.21 0.14 0.10 0.08 0.06 0.07 0.08 0.11 0.11 0.08 0.07 0.08 0.09 0.11 0.11 0.13 0.16 0.17 0.17 0.21 0.22 0.21 0.20 0.19 0.17
0.11 0.08 0.10 0.13 0.16 0.19 0.24 0.25 0.17 0.14 0.15 0.17 0.22 0.24 0.25 0.20 0.19 0.25 0.23 0.22 0.36 0.27 0.21 0.20 0.23 0.28 0.26 0.21 0.19 0.19 0.19 0.19 0.16 0.14 0.13 0.13 0.11 0.10 0.09 0.09 0.09 0.08 0.07 0.09 0.12 0.15 0.16 0.16 0.18 0.19 0.18 0.16 0.16 0.14

GFSWCAN_prec_precacc_162.txt.gz
Total_Precipitation_Accumulation
2.11 2.06 1.88 1.72 1.40 1.27 1.47 1.63 1.40 1.42 1.44 1.34 1.43 1.49 1.55 1.66 2.48 3.05 3.53 1.85 2.67 2.94 0.88 0.57 0.65 0.54 0.36 0.42 0.69 0.59 1.09 0.89 1.17 1.16 1.02 1.12 1.05 0.87 0.73 0.51 0.39 0.54 0.96 0.85 0.73 0.97 0.38 0.14 0.28 0.67 1.00 1.03 1.04 1.18
2.60 2.21 1.84 1.53 1.22 1.26 1.45 1.64 1.41 1.38 1.32 1.29 1.22 1.29 1.51 1.76 2.34 3.07 3.39 2.10 1.92 2.95 1.72 0.68 0.82 0.57 0.38 0.38 0.71 0.83 0.88 0.94 1.09 1.20 0.90 0.75 0.81 0.82 0.85 0.90 0.48 0.58 0.49 0.57 0.50 0.52 0.43 0.23 0.36 0.65 0.71 0.78 0.79 0.84
2.72 2.44 2.16 1.61 1.37 1.37 1.46 1.54 1.32 1.22 1.14 1.17 1.22 1.20 1.49 1.86 2.20 3.16 2.91 2.10 3.11 4.38 2.22 0.92 0.80 0.57 0.54 0.36 0.51 0.92 0.54 0.57 0.76 0.79 1.20 0.99 0.87 0.58 0.79 0.69 0.67 0.85 0.50 0.66 0.66 0.78 0.33 0.22 0.27 0.35 0.43 0.59 0.53 0.51
2.47 2.28 1.89 1.60 1.37 1.42 1.27 1.28 1.16 1.06 1.06 1.14 1.22 1.40 1.65 2.15 2.30 3.08 2.63 2.35 2.97 3.08 2.50 1.08 0.57 0.49 0.55 0.62 0.47 0.63 0.64 0.54 0.66 0.97 1.19 0.96 0.84 0.66 0.98 0.65 0.62 0.98 0.61 0.78 1.01 1.54 0.77 0.65 0.74 0.69 0.49 0.48 0.41 0.42
1.73 1.56 1.58 1.51 1.19 1.20 1.15 1.28 1.24 1.07 1.16 1.12 1.27 1.50 2.23 2.57 3.01 3.57 2.39 2.42 2.42 2.60 2.43 1.16 0.51 0.45 0.47 0.64 0.53 0.55 0.65 0.80 0.92 1.05 1.05 0.67 0.47 0.78 1.17 0.66 0.61 0.71 0.93 0.91 1.07 1.30 1.13 0.96 0.71 0.54 0.38 0.34 0.26 0.19
1.30 1.23 1.43 1.51 1.14 1.09 1.02 1.17 1.30 1.26 1.14 1.16 1.50 1.69 2.36 3.18 4.36 5.16 6.56 4.60 2.55 2.07 2.95 2.12 0.77 0.35 0.41 0.54 0.72 0.90 0.97 1.18 1.25 1.11 0.69 0.56 0.45 1.08 1.46 0.86 0.72 0.79 1.08 0.95 0.88 0.90 0.73 0.62 0.44 0.34 0.27 0.25 0.19 0.12
1.15 1.21 1.36 1.21 0.97 0.85 0.90 1.05 1.13 1.16 1.36 1.47 1.74 1.91 2.91 4.06 3.78 3.00 2.78 2.27 1.59 1.89 2.76 2.49 1.61 0.85 0.49 0.65 1.10 1.05 1.24 1.68 1.81 1.46 0.85 0.45 0.51 1.10 1.35 1.00 0.77 0.79 0.85 0.67 0.55 0.42 0.41 0.40 0.30 0.19 0.14 0.14 0.11 0.08
1.17 1.09 0.93 0.83 0.70 0.72 0.80 0.93 0.99 1.13 1.43 1.72 2.08 3.03 3.67 3.91 3.25 2.31 1.01 0.90 1.04 1.92 1.94 2.09 2.00 2.35 1.12 1.08 1.48 1.28 1.31 1.77 1.98 1.55 0.95 0.56 0.81 1.18 1.38 0.78 0.45 0.38 0.40 0.29 0.21 0.11 0.11 0.09 0.07 0.06 0.05 0.07 0.12 0.15
0.78 0.69 0.66 0.59 0.65 0.77 0.80 0.76 0.90 1.16 1.59 2.35 3.37 4.41 5.73 4.87 3.77 2.12 1.17 1.35 1.40 1.82 1.72 1.01 1.43 2.51 1.98 1.47 1.70 1.69 1.51 1.76 1.25 1.09 0.87 0.88 0.87 1.11 1.02 0.43 0.31 0.18 0.15 0.14 0.06 0.01 0.00 0.00 0.02 0.04 0.05 0.06 0.10 0.19
0.65 0.58 0.58 0.61 0.69 0.70 0.73 0.88 1.10 1.61 2.34 3.15 4.04 4.69 5.86 3.49 2.23 2.54 4.07 3.88 3.08 1.87 1.27 0.83 0.88 1.50 1.97 2.02 1.67 1.97 1.56 1.16 0.90 0.65 0.67 0.91 0.80 0.40 0.21 0.19 0.14 0.10 0.12 0.08 0.04 0.04 0.04 0.05 0.08 0.14 0.21 0.23 0.25 0.25
0.68 0.62 0.64 0.65 0.72 0.94 1.12 1.20 1.54 2.03 2.51 3.05 3.41 3.99 3.34 2.74 2.87 3.41 3.35 2.52 1.79 1.03 0.42 0.43 0.74 1.41 1.55 1.75 1.72 1.31 1.67 1.40 0.91 0.74 0.71 0.84 0.62 0.35 0.17 0.10 0.07 0.09 0.06 0.07 0.11 0.14 0.14 0.16 0.19 0.27 0.32 0.33 0.31 0.28
0.64 0.68 0.70 0.74 0.85 1.05 1.13 1.28 1.26 1.56 1.83 1.66 2.10 2.59 3.31 3.17 2.57 2.18 1.74 1.15 0.71 0.47 0.37 0.34 0.49 0.75 1.44 1.71 1.63 1.09 1.20 1.33 1.59 1.13 1.13 0.86 0.51 0.23 0.15 0.18 0.14 0.12 0.13 0.13 0.14 0.18 0.26 0.32 0.33 0.29 0.27 0.27 0.33 0.41
0.51 0.62 0.76 0.84 0.81 0.90 1.08 1.20 1.36 1.42 1.54 1.79 1.63 2.03 2.14 1.88 1.63 1.36 1.03 0.76 0.57 0.28 0.30 0.37 0.62 0.83 1.09 1.49 1.52 1.17 1.33 1.30 1.27 1.44 0.84 0.64 0.37 0.37 0.44 0.49 0.47 0.36 0.31 0.32 0.36 0.33 0.29 0.32 0.33 0.34 0.42 0.53 0.60 0.73
0.47 0.59 0.58 0.70 0.91 1.17 1.31 1.41 1.74 1.90 1.93 1.71 1.34 1.30 1.21 1.09 0.78 0.79 0.83 0.79 0.57 0.41 0.34 0.38 0.63 0.96 0.93 1.05 1.52 1.42 1.52 1.15 1.23 0.96 0.65 0.61 0.63 0.77 0.69 0.54 0.45 0.50 0.50 0.52 0.59 0.59 0.62 0.68 0.85 0.94 0.97 1.07 0.94 0.99
0.49 0.43 0.63 1.03 1.15 1.14 1.13 1.27 1.65 1.45 1.47 1.23 0.78 0.66 0.71 0.95 0.76 0.76 0.72 0.57 0.60 0.70 0.74 0.84 1.17 1.13 0.89 1.13 1.02 1.02 0.94 0.77 0.63 0.74 0.85 0.93 0.90 0.85 0.71 0.67 0.64 0.66 0.67 0.68 0.75 0.73 0.85 0.88 0.76 0.90 0.99 0.94 0.78 0.82
0.27 0.48 0.73 0.80 0.66 0.74 0.94 1.52 1.68 0.95 0.86 0.72 0.82 0.95 0.85 0.88 0.94 0.84 0.72 0.68 0.81 1.11 1.09 1.08 1.11 1.07 1.10 0.85 0.65 0.59 0.58 0.71 0.93 0.78 0.92 0.94 0.85 0.90 0.88 0.82 0.85 0.87 0.79 0.80 0.83 0.79 0.75 0.71 0.66 0.71 0.71 0.65 0.63 0.51
0.27 0.46 0.72 0.60 0.65 0.76 1.11 1.40 1.22 1.03 0.77 0.72 1.20 1.35 1.16 1.06 1.16 1.05 0.95 0.87 0.88 0.88 0.73 0.68 0.67 0.70 0.74 0.52 0.56 0.58 0.82 0.89 0.87 0.92 0.93 0.93 0.95 1.01 1.05 0.94 0.87 0.74 0.67 0.68 0.67 0.65 0.65 0.68 0.53 0.39 0.44 0.56 0.41 0.35
0.44 0.46 0.54 0.54 0.61 0.87 0.96 0.81 0.79 0.58 0.60 0.94 1.18 1.40 0.87 1.00 0.95 0.84 0.84 0.68 0.61 0.57 0.55 0.65 0.60 0.55 0.73 0.89 0.92 0.87 0.95 1.03 1.05 1.01 0.98 1.01 0.96 0.89 0.80 0.71 0.72 0.60 0.55 0.56 0.49 0.45 0.43 0.39 0.29 0.32 0.29 0.27 0.19 0.18
0.67 0.57 0.77 0.82 0.58 0.63 0.72 0.52 0.28 0.40 0.78 0.83 0.90 0.72 0.55 0.68 0.68 0.62 0.43 0.29 0.21 0.36 0.47 0.40 0.52 0.78 0.89 0.93 0.94 0.95 0.94 0.86 0.89 0.87 0.79 0.79 0.78 0.73 0.68 0.59 0.56 0.59 0.48 0.46 0.33 0.25 0.24 0.19 0.19 0.16 0.15 0.12 0.16 0.20
0.95 0.86 0.88 0.68 0.34 0.38 0.26 0.21 0.04 0.15 0.38 0.50 0.47 0.27 0.23 0.41 0.38 0.23 0.15 0.10 0.13 0.22 0.56 0.62 0.77 0.88 0.81 0.80 0.69 0.70 0.70 0.64 0.51 0.41 0.53 0.60 0.62 0.47 0.54 0.47 0.44 0.40 0.31 0.28 0.23 0.19 0.16 0.15 0.17 0.16 0.16 0.15 0.17 0.19
0.91 1.00 0.77 0.38 0.29 0.26 0.19 0.10 0.07 0.07 0.14 0.21 0.22 0.10 0.16 0.18 0.17 0.17 0.14 0.10 0.29 0.32 0.54 0.70 0.68 0.71 0.48 0.46 0.40 0.36 0.43 0.40 0.41 0.30 0.36 0.47 0.51 0.33 0.34 0.38 0.33 0.29 0.25 0.26 0.24 0.27 0.22 0.22 0.20 0.15 0.15 0.13 0.14 0.14
0.66 0.57 0.57 0.28 0.22 0.20 0.12 0.06 0.08 0.05 0.06 0.12 0.15 0.14 0.15 0.19 0.18 0.12 0.09 0.19 0.50 0.67 0.65 0.48 0.40 0.31 0.22 0.26 0.23 0.17 0.23 0.19 0.24 0.35 0.44 0.37 0.41 0.40 0.42 0.45 0.33 0.32 0.31 0.30 0.26 0.23 0.21 0.16 0.12 0.09 0.08 0.11 0.09 0.09
0.30 0.27 0.28 0.16 0.17 0.17 0.15 0.13 0.11 0.04 0.05 0.10 0.07 0.10 0.10 0.08 0.07 0.10 0.20 0.29 0.67 0.78 0.54 0.28 0.20 0.16 0.19 0.29 0.19 0.16 0.14 0.11 0.13 0.18 0.24 0.27 0.28 0.32 0.31 0.33 0.30 0.28 0.25 0.22 0.15 0.14 0.12 0.08 0.04 0.04 0.07 0.09 0.12 0.14
0.23 0.32 0.46 0.27 0.13 0.18 0.13 0.18 0.12 0.09 0.06 0.05 0.04 0.07 0.08 0.09 0.13 0.17 0.27 0.39 0.64 0.44 0.25 0.29 0.28 0.24 0.21 0.21 0.21 0.23 0.27 0.20 0.22 0.24 0.25 0.19 0.19 0.22 0.16 0.15 0.13 0.11 0.09 0.07 0.03 0.04 0.05 0.09 0.10 0.13 0.12 0.12 0.13 0.13
0.41 0.31 0.37 0.31 0.15 0.10 0.08 0.11 0.14 0.08 0.06 0.04 0.06 0.09 0.07 0.05 0.13 0.15 0.19 0.46 0.40 0.35 0.32 0.31 0.33 0.36 0.36 0.37 0.36 0.31 0.23 0.14 0.11 0.12 0.15 0.09 0.10 0.11 0.10 0.07 0.08 0.08 0.05 0.07 0.08 0.07 0.08 0.10 0.13 0.15 0.15 0.16 0.18 0.19
0.55 0.32 0.20 0.18 0.12 0.10 0.07 0.07 0.07 0.07 0.07 0.11 0.15 0.12 0.08 0.11 0.12 0.19 0.36 0.51 0.41 0.40 0.42 0.41 0.34 0.26 0.26 0.25 0.25 0.20 0.13 0.08 0.05 0.06 0.07 0.03 0.04 0.06 0.09 0.09 0.10 0.13 0.10 0.09 0.10 0.11 0.11 0.11 0.13 0.16 0.22 0.21 0.19 0.20
0.33 0.31 0.14 0.11 0.14 0.15 0.21 0.20 0.18 0.18 0.18 0.19 0.18 0.14 0.18 0.22 0.21 0.47 0.64 0.52 0.45 0.45 0.32 0.25 0.17 0.14 0.15 0.17 0.19 0.13 0.05 0.03 0.03 0.05 0.06 0.09 0.07 0.05 0.06 0.10 0.12 0.11 0.06 0.10 0.10 0.09 0.12 0.14 0.16 0.18 0.21 0.22 0.21 0.22
0.23 0.18 0.21 0.21 0.28 0.29 0.26 0.22 0.26 0.32 0.40 0.35 0.25 0.21 0.23 0.20 0.44 0.60 0.54 0.52 0.40 0.27 0.21 0.17 0.13 0.07 0.08 0.12 0.19 0.16 0.10 0.08 0.05 0.04 0.06 0.13 0.10 0.04 0.05 0.07 0.05 0.04 0.05 0.10 0.13 0.16 0.19 0.19 0.18 0.17 0.18 0.21 0.26 0.31
0.19 0.17 0.16 0.18 0.17 0.19 0.23 0.29 0.33 0.31 0.29 0.25 0.23 0.27 0.24 0.30 0.48 0.47 0.48 0.41 0.34 0.22 0.24 0.24 0.33 0.17 0.14 0.16 0.22 0.23 0.15 0.09 0.05 0.08 0.07 0.11 0.14 0.14 0.10 0.10 0.11 0.11 0.13 0.15 0.21 0.22 0.25 0.28 0.23 0.24 0.22 0.23 0.26 0.28
0.08 0.06 0.12 0.07 0.11 0.21 0.31 0.26 0.28 0.21 0.12 0.12 0.14 0.16 0.20 0.49 0.75 0.52 0.38 0.32 0.30 0.28 0.25 0.21 0.21 0.17 0.17 0.18 0.23 0.32 0.37 0.29 0.16 0.12 0.11 0.09 0.10 0.11 0.12 0.11 0.10 0.13 0.15 0.15 0.16 0.23 0.24 0.26 0.29 0.30 0.22 0.23 0.25 0.24
0.05 0.10 0.10 0.08 0.18 0.24 0.24 0.15 0.14 0.13 0.13 0.13 0.12 0.12 0.23 0.43 0.49 0.46 0.35 0.36 0.29 0.19 0.17 0.21 0.22 0.20 0.21 0.22 0.20 0.19 0.31 0.31 0.17 0.09 0.06 0.06 0.07 0.09 0.10 0.10 0.12 0.16 0.21 0.23 0.20 0.19 0.22 0.23 0.24 0.24 0.19 0.18 0.20 0.17
0.11 0.15 0.11 0.14 0.29 0.25 0.26 0.26 0.20 0.23 0.18 0.15 0.16 0.14 0.20 0.18 0.22 0.26 0.28 0.31 0.28 0.21 0.22 0.22 0.28 0.35 0.25 0.28 0.28 0.28 0.22 0.16 0.11 0.07 0.07 0.08 0.11 0.12 0.10 0.10 0.12 0.15 0.19 0.20 0.20 0.22 0.22 0.20 0.24 0.24 0.23 0.20 0.19 0.17
0.11 0.08 0.10 0.14 0.17 0.19 0.24 0.25 0.17 0.14 0.15 0.17 0.23 0.25 0.28 0.23 0.24 0.29 0.25 0.25 0.41 0.33 0.26 0.25 0.28 0.35 0.33 0.25 0.23 0.21 0.21 0.20 0.16 0.14 0.13 0.14 0.12 0.11 0.10 0.11 0.11 0.12 0.12 0.14 0.16 0.18 0.19 0.19 0.21 0.22 0.20 0.17 0.17 0.15

GFSWCAN_prec_precacc_168.txt.gz
Total_Precipitation_Accumulation
2.16 2.12 1.94 1.79 1.46 1.31 1.53 1.69 1.44 1.46 1.51 1.47 1.49 1.52 1.57 1.69 2.51 3.11 3.61 1.88 2.74 3.00 0.89 0.57 0.65 0.54 0.37 0.43 0.74 0.67 1.18 0.95 1.24 1.23 1.05 1.14 1.08 0.88 0.75 0.52 0.42 0.62 1.14 1.06 0.90 1.13 0.44 0.14 0.29 0.68 1.00 1.03 1.04 1.18
2.63 2.24 1.87 1.55 1.25 1.31 1.49 1.70 1.47 1.43 1.35 1.39 1.35 1.33 1.55 1.80 2.37 3.11 3.47 2.13 1.96 3.03 1.76 0.68 0.82 0.57 0.38 0.38 0.73 0.88 0.98 1.01 1.18 1.29 1.02 0.86 0.90 0.90 0.90 0.94 0.50 0.63 0.62 0.76 0.77 0.62 0.44 0.23 0.37 0.66 0.72 0.78 0.79 0.85
2.75 2.48 2.19 1.62 1.38 1.39 1.51 1.59 1.38 1.26 1.18 1.21 1.36 1.27 1.53 1.91 2.23 3.19 2.95 2.16 3.18 4.47 2.26 0.93 0.80 0.57 0.54 0.36 0.51 0.92 0.54 0.59 0.77 0.81 1.26 1.03 0.89 0.61 0.82 0.72 0.75 0.92 0.53 0.71 0.72 0.80 0.33 0.23 0.29 0.40 0.44 0.60 0.53 0.51
2.53 2.34 1.92 1.62 1.38 1.43 1.30 1.31 1.19 1.10 1.10 1.16 1.29 1.51 1.69 2.19 2.34 3.12 2.68 2.41 3.02 3.13 2.53 1.08 0.57 0.49 0.55 0.62 0.47 0.63 0.64 0.54 0.68 1.02 1.28 1.01 0.87 0.67 0.99 0.66 0.66 1.02 0.66 0.82 1.04 1.56 0.78 0.66 0.74 0.69 0.49 0.48 0.41 0.42
1.94 1.83 1.70 1.53 1.20 1.21 1.16 1.30 1.26 1.10 1.20 1.15 1.31 1.64 2.28 2.63 3.08 3.65 2.48 2.48 2.45 2.62 2.51 1.22 0.52 0.45 0.47 0.64 0.53 0.55 0.65 0.81 0.96 1.12 1.13 0.70 0.50 0.82 1.19 0.67 0.61 0.72 0.94 0.99 1.18 1.36 1.25 1.15 0.84 0.54 0.38 0.34 0.26 0.19
1.34 1.31 1.50 1.55 1.16 1.11 1.04 1.19 1.33 1.29 1.18 1.20 1.54 1.81 2.46 3.26 4.51 5.52 7.01 4.74 2.59 2.12 3.11 2.18 0.78 0.35 0.41 0.54 0.72 0.90 0.98 1.22 1.33 1.21 0.77 0.60 0.47 1.17 1.53 0.88 0.73 0.82 1.10 0.98 0.92 0.91 0.75 0.70 0.47 0.34 0.27 0.26 0.20 0.13
1.17 1.24 1.42 1.26 1.02 0.91 0.95 1.12 1.21 1.22 1.41 1.52 1.79 2.02 3.10 4.18 4.20 3.53 3.02 2.32 1.63 1.96 2.97 2.65 1.64 0.86 0.49 0.65 1.11 1.06 1.27 1.74 1.91 1.59 0.94 0.48 0.54 1.19 1.41 1.00 0.78 0.81 0.87 0.68 0.59 0.55 0.49 0.41 0.31 0.19 0.14 0.14 0.12 0.11
1.21 1.11 0.95 0.85 0.73 0.75 0.85 0.99 1.09 1.24 1.51 1.79 2.16 3.20 4.06 4.42 3.91 2.58 1.06 0.91 1.06 2.07 2.27 2.32 2.05 2.38 1.12 1.09 1.52 1.34 1.45 1.91 2.15 1.64 0.99 0.61 0.86 1.31 1.46 0.78 0.45 0.38 0.40 0.29 0.21 0.12 0.13 0.09 0.07 0.06 0.05 0.07 0.12 0.18
0.78 0.69 0.67 0.60 0.66 0.78 0.82 0.82 1.08 1.29 1.71 2.56 3.65 4.85 6.46 5.53 4.28 2.41 1.24 1.42 1.47 1.98 1.93 1.09 1.45 2.56 2.00 1.49 1.76 1.83 1.64 1.99 1.35 1.16 0.89 0.97 0.99 1.23 1.03 0.43 0.32 0.19 0.17 0.15 0.07 0.01 0.00 0.00 0.02 0.04 0.05 0.06 0.10 0.19
0.65 0.59 0.58 0.62 0.71 0.73 0.80 1.07 1.25 1.68 2.44 3.28 4.27 5.02 6.42 3.88 2.40 2.71 4.42 4.23 3.33 2.02 1.33 0.85 0.89 1.53 1.99 2.05 1.76 2.24 1.72 1.27 1.04 0.70 0.75 1.00 0.83 0.41 0.21 0.19 0.16 0.12 0.13 0.09 0.04 0.04 0.04 0.05 0.08 0.14 0.21 0.23 0.25 0.25
0.69 0.63 0.66 0.69 0.81 1.13 1.45 1.42 1.63 2.10 2.57 3.13 3.55 4.15 3.63 2.91 3.02 3.57 3.48 2.61 1.85 1.06 0.43 0.43 0.74 1.42 1.56 1.77 1.77 1.47 1.92 1.51 1.04 0.86 0.78 0.93 0.64 0.35 0.17 0.11 0.07 0.09 0.06 0.07 0.11 0.14 0.14 0.16 0.19 0.27 0.32 0.33 0.31 0.28
0.67 0.70 0.72 0.76 0.89 1.12 1.22 1.33 1.27 1.56 1.85 1.68 2.14 2.69 3.42 3.27 2.62 2.25 1.79 1.18 0.71 0.47 0.37 0.34 0.49 0.75 1.46 1.73 1.69 1.19 1.35 1.46 1.78 1.22 1.16 0.92 0.58 0.24 0.16 0.18 0.14 0.12 0.13 0.13 0.14 0.18 0.26 0.32 0.33 0.29 0.27 0.27 0.33 0.41
0.51 0.62 0.78 0.86 0.82 0.90 1.08 1.20 1.36 1.42 1.55 1.79 1.63 2.04 2.16 1.90 1.68 1.39 1.05 0.77 0.57 0.28 0.30 0.38 0.65 0.87 1.13 1.52 1.68 1.35 1.44 1.40 1.33 1.49 0.87 0.70 0.39 0.38 0.44 0.49 0.47 0.36 0.31 0.32 0.36 0.33 0.29 0.32 0.33 0.34 0.42 0.53 0.60 0.74
0.47 0.59 0.58 0.70 0.92 1.18 1.31 1.41 1.74 1.90 1.94 1.74 1.35 1.32 1.24 1.13 0.79 0.80 0.83 0.81 0.59 0.42 0.34 0.41 0.78 1.06 1.04 1.17 1.59 1.46 1.55 1.16 1.26 0.99 0.67 0.65 0.63 0.77 0.69 0.54 0.45 0.50 0.50 0.52 0.59 0.59 0.62 0.68 0.85 0.94 0.97 1.07 0.94 0.99
0.49 0.43 0.63 1.03 1.15 1.14 1.14 1.27 1.65 1.45 1.48 1.28 0.83 0.75 0.78 1.00 0.81 0.83 0.77 0.62 0.63 0.72 0.76 0.93 1.27 1.28 1.02 1.21 1.03 1.03 0.94 0.78 0.63 0.78 0.89 0.94 0.90 0.85 0.71 0.67 0.64 0.66 0.67 0.68 0.75 0.73 0.85 0.88 0.76 0.90 0.99 0.94 0.78 0.82
0.27 0.49 0.73 0.80 0.66 0.74 0.95 1.54 1.70 0.99 0.91 0.78 0.87 0.98 0.90 0.98 1.02 0.86 0.72 0.69 0.83 1.11 1.11 1.23 1.24 1.23 1.16 0.86 0.65 0.59 0.59 0.72 0.96 0.82 0.92 0.94 0.85 0.90 0.88 0.82 0.85 0.87 0.79 0.80 0.83 0.79 0.75 0.71 0.66 0.72 0.71 0.65 0.63 0.51
0.27 0.46 0.72 0.60 0.65 0.76 1.13 1.48 1.35 1.17 0.82 0.75 1.22 1.36 1.19 1.19 1.36 1.15 0.97 0.88 0.89 0.89 0.78 0.82 0.79 0.72 0.76 0.53 0.57 0.59 0.85 0.93 0.89 0.93 0.93 0.93 0.95 1.01 1.05 0.94 0.87 0.74 0.67 0.68 0.67 0.65 0.66 0.68 0.53 0.39 0.45 0.56 0.41 0.35
0.44 0.46 0.54 0.54 0.61 0.88 0.98 0.90 0.95 0.67 0.65 0.95 1.18 1.41 0.87 1.00 0.96 0.85 0.85 0.68 0.62 0.61 0.66 0.78 0.63 0.56 0.73 0.89 0.94 0.90 0.97 1.03 1.05 1.01 0.98 1.01 0.96 0.89 0.80 0.71 0.72 0.60 0.55 0.56 0.49 0.45 0.43 0.39 0.29 0.32 0.29 0.28 0.20 0.19
0.67 0.57 0.77 0.82 0.58 0.64 0.74 0.53 0.34 0.46 0.82 0.85 0.90 0.72 0.55 0.68 0.68 0.62 0.43 0.29 0.22 0.38 0.55 0.47 0.56 0.79 0.91 0.96 0.97 0.96 0.94 0.88 0.90 0.87 0.79 0.79 0.78 0.73 0.68 0.59 0.57 0.59 0.48 0.46 0.33 0.25 0.24 0.19 0.19 0.16 0.15 0.12 0.16 0.20
0.95 0.86 0.88 0.68 0.34 0.38 0.26 0.22 0.06 0.18 0.41 0.51 0.48 0.27 0.23 0.41 0.38 0.23 0.16 0.10 0.13 0.23 0.57 0.64 0.79 0.95 0.89 0.85 0.72 0.74 0.74 0.67 0.52 0.41 0.53 0.60 0.62 0.48 0.54 0.47 0.44 0.40 0.31 0.28 0.23 0.19 0.16 0.15 0.17 0.16 0.16 0.15 0.17 0.20
0.91 1.00 0.77 0.38 0.29 0.26 0.21 0.12 0.08 0.08 0.16 0.22 0.22 0.11 0.16 0.18 0.18 0.17 0.14 0.10 0.30 0.34 0.57 0.74 0.73 0.75 0.50 0.46 0.41 0.36 0.44 0.41 0.41 0.30 0.37 0.48 0.51 0.33 0.35 0.38 0.33 0.29 0.25 0.26 0.24 0.27 0.22 0.23 0.20 0.15 0.15 0.13 0.15 0.14
0.66 0.57 0.59 0.29 0.23 0.20 0.12 0.06 0.09 0.06 0.07 0.15 0.18 0.17 0.26 0.26 0.21 0.13 0.10 0.21 0.56 0.74 0.69 0.51 0.41 0.32 0.22 0.26 0.24 0.18 0.24 0.20 0.25 0.35 0.45 0.37 0.41 0.40 0.43 0.46 0.34 0.32 0.31 0.31 0.27 0.24 0.22 0.17 0.12 0.09 0.08 0.12 0.09 0.09
0.30 0.28 0.31 0.18 0.17 0.17 0.16 0.13 0.12 0.06 0.07 0.13 0.11 0.16 0.16 0.14 0.11 0.13 0.31 0.46 0.78 0.80 0.55 0.29 0.20 0.16 0.19 0.29 0.20 0.17 0.14 0.11 0.15 0.22 0.26 0.28 0.29 0.32 0.31 0.33 0.30 0.28 0.26 0.22 0.16 0.14 0.14 0.08 0.04 0.05 0.08 0.10 0.13 0.14
0.23 0.33 0.46 0.27 0.14 0.20 0.14 0.21 0.14 0.12 0.08 0.08 0.11 0.14 0.14 0.12 0.14 0.27 0.44 0.48 0.68 0.45 0.25 0.29 0.28 0.24 0.22 0.22 0.22 0.24 0.27 0.21 0.23 0.28 0.29 0.23 0.22 0.23 0.16 0.15 0.13 0.11 0.09 0.07 0.03 0.04 0.06 0.09 0.10 0.14 0.12 0.12 0.13 0.14
0.43 0.32 0.41 0.34 0.17 0.13 0.10 0.13 0.15 0.10 0.09 0.05 0.08 0.13 0.08 0.05 0.15 0.26 0.29 0.58 0.47 0.36 0.33 0.32 0.33 0.36 0.37 0.38 0.37 0.33 0.24 0.17 0.14 0.16 0.19 0.13 0.15 0.15 0.11 0.07 0.08 0.08 0.06 0.08 0.08 0.07 0.08 0.10 0.14 0.16 0.16 0.16 0.18 0.20
0.59 0.34 0.25 0.22 0.16 0.15 0.11 0.13 0.11 0.09 0.08 0.13 0.16 0.13 0.09 0.14 0.13 0.26 0.47 0.61 0.45 0.42 0.44 0.43 0.35 0.27 0.26 0.26 0.26 0.22 0.15 0.10 0.07 0.09 0.11 0.05 0.09 0.13 0.14 0.11 0.11 0.14 0.10 0.10 0.10 0.11 0.12 0.12 0.14 0.17 0.23 0.22 0.20 0.21
0.37 0.35 0.16 0.15 0.18 0.19 0.25 0.21 0.19 0.21 0.20 0.21 0.20 0.15 0.20 0.23 0.26 0.60 0.76 0.54 0.46 0.46 0.33 0.26 0.18 0.14 0.16 0.17 0.19 0.14 0.06 0.04 0.05 0.06 0.06 0.09 0.09 0.08 0.11 0.16 0.18 0.14 0.06 0.10 0.13 0.12 0.13 0.16 0.17 0.20 0.24 0.24 0.22 0.23
0.28 0.20 0.29 0.29 0.39 0.38 0.31 0.26 0.29 0.37 0.45 0.35 0.27 0.24 0.28 0.28 0.59 0.71 0.58 0.54 0.42 0.29 0.22 0.17 0.14 0.08 0.09 0.12 0.20 0.16 0.11 0.09 0.05 0.04 0.06 0.14 0.12 0.07 0.07 0.10 0.09 0.06 0.06 0.12 0.18 0.21 0.22 0.21 0.20 0.19 0.21 0.23 0.27 0.32
0.19 0.17 0.19 0.23 0.22 0.27 0.28 0.34 0.40 0.36 0.31 0.26 0.32 0.44 0.32 0.35 0.56 0.53 0.52 0.42 0.35 0.23 0.25 0.26 0.34 0.18 0.16 0.17 0.25 0.24 0.17 0.13 0.08 0.10 0.09 0.15 0.18 0.17 0.12 0.12 0.16 0.16 0.16 0.18 0.27 0.28 0.31 0.31 0.25 0.25 0.24 0.25 0.27 0.30
0.08 0.07 0.13 0.07 0.11 0.27 0.37 0.28 0.29 0.21 0.12 0.15 0.25 0.28 0.25 0.55 0.79 0.54 0.39 0.33 0.32 0.31 0.28 0.24 0.25 0.20 0.21 0.21 0.25 0.35 0.40 0.34 0.21 0.16 0.14 0.12 0.12 0.12 0.12 0.13 0.14 0.17 0.19 0.17 0.19 0.30 0.33 0.33 0.34 0.34 0.25 0.27 0.30 0.29
0.06 0.11 0.11 0.08 0.18 0.24 0.24 0.15 0.14 0.13 0.14 0.16 0.21 0.26 0.30 0.49 0.53 0.47 0.35 0.37 0.31 0.20 0.18 0.23 0.24 0.24 0.25 0.27 0.26 0.25 0.41 0.42 0.28 0.18 0.11 0.09 0.08 0.09 0.11 0.11 0.13 0.18 0.25 0.27 0.24 0.24 0.27 0.29 0.30 0.29 0.25 0.23 0.24 0.20
0.12 0.15 0.12 0.16 0.29 0.26 0.26 0.26 0.20 0.24 0.26 0.30 0.35 0.37 0.40 0.28 0.25 0.30 0.31 0.31 0.30 0.22 0.23 0.25 0.32 0.40 0.32 0.38 0.40 0.37 0.32 0.28 0.22 0.16 0.13 0.12 0.13 0.13 0.11 0.10 0.12 0.17 0.24 0.27 0.26 0.27 0.27 0.25 0.29 0.29 0.27 0.24 0.22 0.20
0.11 0.08 0.11 0.15 0.18 0.20 0.24 0.26 0.18 0.16 0.27 0.34 0.36 0.35 0.38 0.26 0.27 0.33 0.27 0.27 0.46 0.38 0.30 0.29 0.34 0.44 0.43 0.33 0.30 0.28 0.25 0.23 0.18 0.16 0.14 0.15 0.13 0.12 0.11 0.12 0.12 0.14 0.17 0.21 0.23 0.24 0.24 0.23 0.25 0.26 0.24 0.19 0.19 0.16

GFSWCAN_prec_precacc_171.txt.gz
Total_Precipitation_Accumulation
2.18 2.13 1.96 1.80 1.48 1.33 1.54 1.71 1.46 1.48 1.54 1.49 1.53 1.57 1.59 1.70 2.52 3.13 3.61 1.92 2.81 3.09 0.89 0.57 0.66 0.55 0.37 0.43 0.74 0.67 1.18 0.96 1.28 1.29 1.07 1.15 1.09 0.90 0.76 0.52 0.42 0.62 1.18 1.16 1.01 1.31 0.52 0.19 0.39 0.79 1.05 1.03 1.05 1.18
2.65 2.25 1.88 1.56 1.27 1.33 1.51 1.72 1.49 1.45 1.38 1.42 1.38 1.39 1.59 1.81 2.39 3.13 3.48 2.14 2.01 3.09 1.77 0.68 0.82 0.57 0.38 0.38 0.73 0.88 0.99 1.06 1.21 1.37 1.09 0.94 0.96 0.93 0.92 0.96 0.51 0.65 0.66 0.80 0.80 0.74 0.49 0.25 0.44 0.82 0.80 0.86 0.91 0.86
2.77 2.49 2.21 1.64 1.38 1.41 1.54 1.60 1.41 1.31 1.20 1.24 1.39 1.34 1.59 1.93 2.25 3.21 2.95 2.18 3.22 4.49 2.26 0.93 0.80 0.57 0.54 0.36 0.51 0.92 0.54 0.59 0.79 0.84 1.27 1.05 0.89 0.61 0.83 0.73 0.77 0.94 0.54 0.76 0.75 0.80 0.34 0.23 0.30 0.44 0.49 0.64 0.59 0.53
2.58 2.37 1.96 1.64 1.39 1.43 1.33 1.33 1.22 1.17 1.15 1.19 1.33 1.59 1.76 2.22 2.36 3.13 2.69 2.44 3.04 3.14 2.53 1.08 0.57 0.49 0.55 0.62 0.47 0.63 0.64 0.54 0.68 1.03 1.30 1.02 0.88 0.67 0.99 0.66 0.66 1.02 0.66 0.82 1.04 1.56 0.78 0.66 0.75 0.72 0.55 0.52 0.42 0.42
2.01 1.87 1.72 1.54 1.21 1.23 1.19 1.32 1.29 1.18 1.28 1.17 1.34 1.72 2.36 2.65 3.11 3.69 2.50 2.50 2.48 2.64 2.55 1.23 0.53 0.45 0.47 0.64 0.53 0.55 0.65 0.81 0.96 1.12 1.13 0.71 0.51 0.83 1.19 0.67 0.61 0.72 0.94 0.99 1.18 1.36 1.25 1.16 0.95 0.73 0.58 0.41 0.27 0.20
1.37 1.32 1.51 1.56 1.17 1.12 1.05 1.21 1.36 1.34 1.21 1.21 1.57 1.88 2.52 3.29 4.57 5.63 7.11 4.76 2.61 2.16 3.12 2.19 0.79 0.35 0.41 0.54 0.72 0.90 0.98 1.22 1.35 1.23 0.78 0.61 0.47 1.21 1.56 0.88 0.73 0.82 1.10 0.98 0.92 0.91 0.75 0.71 0.54 0.39 0.33 0.28 0.22 0.15
1.19 1.26 1.43 1.27 1.03 0.92 0.96 1.13 1.22 1.23 1.43 1.54 1.83 2.09 3.14 4.24 4.26 3.62 3.05 2.33 1.64 1.98 2.98 2.65 1.65 0.86 0.49 0.65 1.11 1.06 1.27 1.75 1.94 1.63 0.96 0.49 0.55 1.23 1.43 1.01 0.78 0.81 0.87 0.68 0.59 0.56 0.53 0.42 0.32 0.27 0.20 0.17 0.15 0.13
1.22 1.12 0.96 0.86 0.75 0.78 0.86 1.01 1.11 1.26 1.53 1.82 2.19 3.33 4.21 4.52 3.94 2.63 1.06 0.91 1.06 2.07 2.27 2.32 2.06 2.38 1.12 1.09 1.52 1.35 1.46 1.94 2.19 1.67 1.00 0.62 0.88 1.33 1.49 0.78 0.45 0.38 0.40 0.29 0.21 0.12 0.16 0.11 0.08 0.07 0.06 0.07 0.13 0.20
0.79 0.69 0.67 0.61 0.68 0.80 0.84 0.85 1.12 1.34 1.77 2.61 3.75 5.19 7.10 5.92 4.35 2.50 1.26 1.43 1.47 1.98 1.93 1.09 1.45 2.56 2.01 1.49 1.77 1.86 1.66 2.02 1.36 1.17 0.90 1.01 1.04 1.25 1.04 0.43 0.32 0.19 0.17 0.16 0.07 0.03 0.04 0.02 0.02 0.04 0.05 0.06 0.10 0.19
0.66 0.59 0.59 0.63 0.72 0.74 0.81 1.09 1.30 1.74 2.49 3.30 4.44 5.32 6.87 4.17 2.42 2.83 4.63 4.34 3.39 2.03 1.34 0.86 0.89 1.53 2.00 2.06 1.77 2.24 1.72 1.28 1.07 0.70 0.76 1.03 0.84 0.41 0.21 0.19 0.16 0.13 0.14 0.18 0.20 0.12 0.05 0.06 0.08 0.14 0.21 0.23 0.25 0.25
0.71 0.68 0.75 0.80 0.94 1.20 1.47 1.44 1.65 2.10 2.58 3.17 3.64 4.27 3.85 3.05 3.07 3.71 3.71 2.71 1.88 1.07 0.43 0.43 0.74 1.43 1.58 1.79 1.77 1.48 1.93 1.54 1.09 0.88 0.81 0.95 0.66 0.37 0.18 0.11 0.07 0.11 0.14 0.15 0.17 0.17 0.14 0.16 0.19 0.27 0.32 0.33 0.31 0.28
0.68 0.72 0.79 0.93 1.09 1.30 1.34 1.36 1.28 1.57 1.86 1.69 2.15 2.76 3.53 3.34 2.66 2.32 1.88 1.23 0.71 0.47 0.37 0.34 0.49 0.75 1.47 1.73 1.69 1.20 1.37 1.49 1.83 1.36 1.22 0.94 0.71 0.27 0.16 0.18 0.15 0.13 0.13 0.13 0.14 0.18 0.26 0.32 0.33 0.29 0.27 0.27 0.33 0.41
0.51 0.62 0.78 0.87 0.88 0.97 1.11 1.21 1.36 1.42 1.55 1.80 1.64 2.04 2.17 1.93 1.72 1.41 1.07 0.78 0.57 0.28 0.30 0.38 0.65 0.87 1.13 1.52 1.68 1.36 1.54 1.45 1.37 1.52 0.90 0.77 0.45 0.41 0.45 0.49 0.47 0.36 0.31 0.32 0.36 0.33 0.29 0.32 0.33 0.34 0.42 0.53 0.60 0.74
0.47 0.59 0.58 0.70 0.92 1.18 1.31 1.41 1.74 1.90 1.96 1.76 1.36 1.32 1.24 1.13 0.80 0.80 0.83 0.81 0.59 0.42 0.35 0.41 0.79 1.06 1.05 1.20 1.61 1.51 1.58 1.17 1.26 1.01 0.73 0.69 0.63 0.77 0.69 0.54 0.45 0.50 0.50 0.52 0.59 0.59 0.62 0.68 0.85 0.94 0.97 1.07 0.94 0.99
0.49 0.43 0.63 1.03 1.15 1.14 1.14 1.27 1.65 1.45 1.48 1.29 0.85 0.76 0.78 1.00 0.82 0.84 0.78 0.63 0.65 0.74 0.78 0.94 1.27 1.28 1.06 1.35 1.05 1.03 0.94 0.78 0.64 0.99 0.96 0.94 0.90 0.85 0.71 0.67 0.64 0.66 0.67 0.68 0.75 0.73 0.85 0.88 0.76 0.90 0.99 0.94 0.78 0.82
0.27 0.49 0.73 0.80 0.66 0.74 0.95 1.54 1.70 0.99 0.91 0.79 0.89 1.00 0.92 1.00 1.04 0.86 0.73 0.71 0.85 1.13 1.12 1.23 1.25 1.28 1.24 0.93 0.66 0.59 0.59 0.75 1.02 0.85 0.93 0.94 0.85 0.90 0.88 0.82 0.85 0.87 0.79 0.80 0.83 0.79 0.75 0.71 0.66 0.72 0.71 0.65 0.63 0.51
0.27 0.46 0.72 0.60 0.65 0.77 1.13 1.50 1.38 1.17 0.83 0.77 1.24 1.36 1.19 1.21 1.50 1.21 0.99 0.91 0.91 0.89 0.78 0.82 0.85 0.76 0.79 0.55 0.57 0.60 0.88 0.97 0.93 0.94 0.93 0.93 0.95 1.01 1.05 0.94 0.87 0.74 0.68 0.68 0.67 0.65 0.66 0.68 0.53 0.39 0.45 0.56 0.41 0.35
0.44 0.46 0.54 0.54 0.61 0.89 1.00 0.94 1.07 0.71 0.67 0.97 1.19 1.41 0.87 1.00 1.00 0.90 0.87 0.70 0.62 0.62 0.68 0.84 0.77 0.61 0.74 0.89 0.96 0.95 0.99 1.04 1.07 1.01 0.98 1.01 0.96 0.89 0.80 0.71 0.72 0.60 0.55 0.57 0.49 0.45 0.43 0.39 0.29 0.32 0.29 0.28 0.20 0.19
0.67 0.57 0.77 0.82 0.58 0.64 0.76 0.55 0.37 0.50 0.90 0.86 0.90 0.72 0.55 0.68 0.68 0.62 0.44 0.29 0.22 0.41 0.68 0.73 0.67 0.83 0.94 1.00 0.99 0.96 0.95 0.89 0.92 0.87 0.79 0.79 0.78 0.73 0.68 0.59 0.57 0.59 0.48 0.46 0.33 0.25 0.24 0.19 0.19 0.16 0.15 0.12 0.16 0.20
0.95 0.86 0.88 0.68 0.34 0.38 0.26 0.25 0.10 0.21 0.45 0.52 0.48 0.27 0.23 0.41 0.38 0.23 0.16 0.10 0.13 0.24 0.60 0.72 0.87 1.01 0.93 0.87 0.72 0.75 0.75 0.68 0.53 0.42 0.54 0.61 0.62 0.48 0.54 0.47 0.44 0.40 0.31 0.28 0.23 0.19 0.16 0.15 0.17 0.16 0.16 0.15 0.17 0.20
0.91 1.00 0.77 0.38 0.29 0.26 0.22 0.14 0.12 0.10 0.18 0.22 0.22 0.11 0.16 0.18 0.18 0.17 0.14 0.10 0.31 0.35 0.60 0.77 0.74 0.76 0.50 0.46 0.41 0.36 0.44 0.42 0.42 0.30 0.37 0.48 0.51 0.33 0.35 0.38 0.33 0.29 0.25 0.26 0.24 0.27 0.22 0.23 0.20 0.15 0.15 0.14 0.15 0.14
0.67 0.57 0.60 0.29 0.23 0.20 0.12 0.06 0.09 0.06 0.07 0.16 0.19 0.17 0.27 0.27 0.22 0.14 0.10 0.23 0.58 0.76 0.70 0.52 0.41 0.32 0.22 0.26 0.24 0.18 0.25 0.20 0.25 0.35 0.45 0.37 0.41 0.40 0.43 0.46 0.34 0.33 0.31 0.31 0.27 0.24 0.23 0.17 0.12 0.09 0.08 0.12 0.09 0.09
0.30 0.28 0.32 0.18 0.17 0.17 0.16 0.13 0.13 0.06 0.07 0.14 0.12 0.17 0.18 0.16 0.15 0.14 0.33 0.49 0.80 0.81 0.55 0.29 0.20 0.16 0.19 0.29 0.20 0.17 0.14 0.11 0.15 0.22 0.26 0.28 0.29 0.33 0.32 0.33 0.30 0.28 0.26 0.22 0.16 0.14 0.14 0.09 0.04 0.05 0.08 0.10 0.13 0.15
0.23 0.33 0.46 0.27 0.15 0.21 0.14 0.21 0.15 0.12 0.09 0.09 0.12 0.16 0.15 0.12 0.14 0.29 0.48 0.53 0.72 0.45 0.25 0.29 0.28 0.24 0.22 0.22 0.22 0.24 0.28 0.21 0.23 0.28 0.30 0.24 0.25 0.28 0.18 0.16 0.13 0.11 0.09 0.07 0.03 0.04 0.06 0.09 0.10 0.14 0.12 0.12 0.14 0.14
0.45 0.34 0.46 0.38 0.18 0.14 0.10 0.14 0.16 0.11 0.10 0.06 0.10 0.16 0.08 0.05 0.17 0.29 0.34 0.72 0.51 0.36 0.33 0.32 0.33 0.36 0.37 0.38 0.38 0.34 0.24 0.17 0.15 0.16 0.20 0.14 0.17 0.19 0.15 0.08 0.08 0.08 0.06 0.08 0.08 0.07 0.09 0.10 0.14 0.16 0.16 0.16 0.19 0.20
0.61 0.36 0.27 0.24 0.17 0.18 0.15 0.16 0.13 0.10 0.08 0.14 0.17 0.14 0.09 0.14 0.15 0.34 0.53 0.65 0.46 0.43 0.44 0.43 0.35 0.27 0.26 0.26 0.26 0.22 0.15 0.10 0.08 0.11 0.12 0.05 0.09 0.14 0.18 0.15 0.12 0.14 0.10 0.10 0.11 0.12 0.13 0.12 0.15 0.18 0.24 0.23 0.21 0.23
0.38 0.36 0.17 0.17 0.22 0.23 0.30 0.25 0.22 0.23 0.22 0.24 0.21 0.16 0.20 0.25 0.31 0.65 0.80 0.56 0.48 0.48 0.35 0.27 0.19 0.15 0.16 0.17 0.20 0.14 0.06 0.04 0.05 0.07 0.07 0.09 0.09 0.09 0.12 0.18 0.19 0.14 0.06 0.11 0.15 0.14 0.16 0.17 0.18 0.21 0.25 0.25 0.23 0.24
0.29 0.21 0.32 0.31 0.44 0.45 0.37 0.30 0.33 0.41 0.47 0.36 0.28 0.29 0.30 0.32 0.63 0.75 0.61 0.56 0.43 0.30 0.22 0.18 0.15 0.08 0.10 0.13 0.21 0.17 0.12 0.09 0.06 0.04 0.07 0.15 0.12 0.07 0.08 0.11 0.09 0.08 0.07 0.14 0.20 0.24 0.25 0.23 0.21 0.21 0.23 0.24 0.28 0.33
0.20 0.17 0.20 0.24 0.22 0.29 0.30 0.36 0.42 0.38 0.33 0.31 0.35 0.48 0.34 0.38 0.60 0.56 0.53 0.43 0.35 0.23 0.25 0.26 0.34 0.18 0.16 0.17 0.26 0.26 0.17 0.14 0.09 0.10 0.11 0.18 0.19 0.17 0.12 0.12 0.16 0.18 0.17 0.19 0.30 0.31 0.34 0.33 0.27 0.27 0.27 0.28 0.30 0.33
0.09 0.07 0.15 0.08 0.12 0.29 0.38 0.28 0.30 0.22 0.13 0.22 0.28 0.29 0.26 0.57 0.81 0.55 0.39 0.34 0.32 0.31 0.29 0.25 0.25 0.21 0.22 0.22 0.28 0.39 0.42 0.37 0.25 0.20 0.19 0.15 0.13 0.13 0.13 0.13 0.14 0.18 0.19 0.17 0.20 0.32 0.37 0.37 0.39 0.38 0.29 0.31 0.33 0.33
0.06 0.11 0.11 0.08 0.18 0.25 0.25 0.15 0.14 0.13 0.16 0.25 0.27 0.27 0.31 0.52 0.55 0.47 0.35 0.37 0.31 0.20 0.18 0.24 0.24 0.24 0.27 0.31 0.30 0.27 0.42 0.43 0.31 0.23 0.16 0.14 0.12 0.12 0.12 0.11 0.13 0.19 0.25 0.27 0.24 0.25 0.30 0.32 0.33 0.31 0.27 0.25 0.26 0.22
0.12 0.16 0.13 0.17 0.30 0.26 0.26 0.26 0.20 0.28 0.38 0.41 0.47 0.47 0.48 0.31 0.26 0.31 0.31 0.31 0.30 0.22 0.24 0.27 0.34 0.42 0.36 0.44 0.45 0.42 0.35 0.30 0.24 0.18 0.15 0.14 0.15 0.14 0.11 0.11 0.12 0.17 0.26 0.28 0.27 0.28 0.28 0.26 0.31 0.31 0.29 0.26 0.25 0.23
0.11 0.09 0.11 0.15 0.18 0.20 0.24 0.26 0.18 0.20 0.34 0.38 0.41 0.41 0.41 0.27 0.28 0.36 0.29 0.27 0.48 0.40 0.31 0.30 0.36 0.47 0.47 0.37 0.33 0.31 0.28 0.24 0.19 0.16 0.15 0.15 0.13 0.12 0.11 0.12 0.12 0.14 0.18 0.24 0.26 0.26 0.25 0.24 0.26 0.28 0.25 0.22 0.21 0.18

GFSWCAN_prec_precacc_174.txt.gz
Total_Precipitation_Accumulation
2.20 2.15 1.97 1.81 1.49 1.34 1.56 1.72 1.47 1.50 1.56 1.52 1.56 1.62 1.64 1.72 2.54 3.16 3.61 1.92 2.81 3.11 0.90 0.58 0.67 0.55 0.37 0.43 0.74 0.67 1.18 0.96 1.28 1.29 1.07 1.15 1.09 0.90 0.76 0.52 0.42 0.62 1.20 1.23 1.16 1.53 0.64 0.22 0.43 0.89 1.18 1.16 1.14 1.22
2.67 2.27 1.89 1.58 1.28 1.34 1.53 1.73 1.51 1.47 1.40 1.45 1.41 1.42 1.67 1.86 2.42 3.16 3.48 2.15 2.03 3.14 1.82 0.69 0.82 0.57 0.38 0.38 0.73 0.88 0.99 1.06 1.21 1.37 1.11 0.97 0.99 0.94 0.92 0.96 0.52 0.67 0.72 0.88 0.90 0.80 0.54 0.27 0.48 0.89 0.87 0.95 0.96 0.92
2.80 2.50 2.23 1.66 1.41 1.41 1.56 1.62 1.42 1.33 1.22 1.27 1.43 1.37 1.66 2.00 2.29 3.23 2.95 2.18 3.24 4.52 2.28 0.93 0.80 0.57 0.54 0.36 0.51 0.92 0.54 0.59 0.79 0.84 1.28 1.05 0.89 0.61 0.83 0.73 0.77 0.94 0.55 0.78 0.77 0.81 0.34 0.23 0.30 0.44 0.50 0.67 0.76 0.63
2.60 2.39 1.99 1.68 1.44 1.47 1.36 1.35 1.24 1.19 1.17 1.21 1.37 1.62 1.84 2.32 2.42 3.16 2.69 2.44 3.04 3.14 2.53 1.08 0.57 0.49 0.55 0.62 0.47 0.63 0.64 0.54 0.68 1.03 1.30 1.02 0.88 0.67 0.99 0.66 0.66 1.02 0.66 0.82 1.04 1.56 0.78 0.66 0.75 0.72 0.55 0.56 0.46 0.44
2.02 1.87 1.73 1.56 1.23 1.26 1.23 1.33 1.31 1.20 1.31 1.19 1.38 1.75 2.43 2.79 3.19 3.72 2.50 2.53 2.48 2.65 2.55 1.24 0.53 0.45 0.47 0.64 0.53 0.55 0.65 0.81 0.96 1.12 1.13 0.71 0.51 0.83 1.19 0.67 0.61 0.72 0.94 0.99 1.18 1.36 1.25 1.16 0.95 0.73 0.58 0.41 0.28 0.20
1.38 1.33 1.51 1.57 1.20 1.16 1.08 1.23 1.40 1.43 1.31 1.24 1.60 1.92 2.64 3.43 4.65 5.67 7.15 4.78 2.63 2.18 3.12 2.19 0.79 0.35 0.41 0.54 0.72 0.90 0.98 1.22 1.35 1.23 0.78 0.61 0.47 1.21 1.57 0.88 0.73 0.82 1.10 0.98 0.92 0.91 0.75 0.71 0.54 0.39 0.33 0.29 0.25 0.18
1.21 1.27 1.44 1.28 1.04 0.94 0.99 1.17 1.29 1.42 1.53 1.57 1.87 2.13 3.28 4.32 4.30 3.64 3.06 2.33 1.64 1.99 2.98 2.65 1.65 0.86 0.49 0.65 1.11 1.06 1.27 1.75 1.94 1.64 0.97 0.49 0.55 1.26 1.55 1.05 0.78 0.81 0.87 0.68 0.59 0.56 0.53 0.42 0.32 0.27 0.27 0.21 0.19 0.17
1.22 1.14 0.97 0.87 0.75 0.79 0.89 1.03 1.18 1.38 1.57 1.87 2.25 3.39 4.31 4.63 3.96 2.63 1.06 0.91 1.06 2.07 2.27 2.32 2.06 2.38 1.12 1.09 1.52 1.35 1.46 1.94 2.19 1.67 1.00 0.62 0.91 1.39 1.56 0.79 0.45 0.38 0.40 0.29 0.21 0.12 0.16 0.11 0.08 0.07 0.06 0.08 0.14 0.20
0.80 0.70 0.68 0.61 0.68 0.81 0.87 0.88 1.15 1.37 1.83 2.69 3.92 5.46 7.49 6.10 4.38 2.50 1.27 1.43 1.47 1.98 1.93 1.09 1.45 2.56 2.01 1.49 1.77 1.86 1.67 2.03 1.37 1.18 0.90 1.04 1.11 1.31 1.04 0.43 0.32 0.19 0.17 0.16 0.07 0.03 0.04 0.02 0.02 0.04 0.05 0.06 0.10 0.19
0.71 0.60 0.61 0.64 0.73 0.76 0.84 1.13 1.33 1.80 2.57 3.47 4.82 5.66 7.14 4.25 2.43 2.84 4.72 4.41 3.40 2.03 1.34 0.87 0.89 1.53 2.00 2.06 1.77 2.24 1.72 1.29 1.07 0.71 0.76 1.06 0.85 0.43 0.22 0.19 0.16 0.13 0.14 0.19 0.21 0.15 0.09 0.09 0.08 0.14 0.21 0.23 0.25 0.25
0.81 0.77 0.79 0.84 0.95 1.20 1.47 1.45 1.65 2.11 2.59 3.28 3.80 4.44 4.01 3.11 3.12 3.77 3.84 2.80 1.91 1.08 0.43 0.44 0.74 1.43 1.58 1.79 1.77 1.48 1.93 1.54 1.09 0.88 0.87 0.99 0.68 0.52 0.23 0.11 0.07 0.11 0.16 0.23 0.25 0.43 0.26 0.17 0.19 0.27 0.32 0.33 0.31 0.28
0.73 0.91 1.02 1.05 1.14 1.32 1.35 1.36 1.28 1.57 1.86 1.69 2.16 2.84 3.63 3.52 2.79 2.36 1.90 1.25 0.72 0.47 0.37 0.34 0.49 0.75 1.47 1.73 1.71 1.21 1.37 1.49 1.83 1.41 1.30 1.01 0.97 0.40 0.16 0.18 0.15 0.13 0.13 0.14 0.16 0.19 0.26 0.32 0.33 0.29 0.27 0.27 0.33 0.41
0.52 0.67 0.89 1.04 1.02 1.02 1.13 1.22 1.36 1.42 1.55 1.80 1.64 2.05 2.21 2.03 1.77 1.42 1.08 0.78 0.57 0.28 0.30 0.38 0.65 0.87 1.13 1.52 1.68 1.36 1.54 1.48 1.39 1.56 0.96 0.87 0.61 0.45 0.45 0.49 0.47 0.36 0.31 0.32 0.36 0.33 0.29 0.32 0.33 0.34 0.42 0.53 0.60 0.74
0.47 0.59 0.58 0.75 0.98 1.23 1.36 1.44 1.75 1.91 1.96 1.76 1.36 1.32 1.25 1.14 0.80 0.80 0.83 0.81 0.59 0.42 0.35 0.41 0.79 1.06 1.05 1.20 1.61 1.52 1.59 1.19 1.27 1.03 0.85 0.71 0.64 0.77 0.69 0.54 0.45 0.50 0.50 0.52 0.59 0.59 0.62 0.68 0.85 0.94 0.97 1.07 0.94 0.99
0.49 0.43 0.63 1.03 1.15 1.15 1.15 1.28 1.65 1.45 1.48 1.29 0.85 0.76 0.78 1.00 0.82 0.84 0.78 0.63 0.65 0.74 0.78 0.94 1.27 1.28 1.06 1.35 1.07 1.04 0.94 0.78 0.66 1.20 1.05 0.94 0.90 0.85 0.71 0.67 0.64 0.66 0.67 0.68 0.75 0.73 0.85 0.88 0.76 0.90 0.99 0.94 0.78 0.82
0.27 0.49 0.73 0.80 0.66 0.74 0.95 1.54 1.70 0.99 0.91 0.79 0.89 1.00 0.92 1.00 1.04 0.86 0.73 0.71 0.85 1.16 1.14 1.24 1.25 1.28 1.24 0.94 0.68 0.60 0.60 0.77 1.13 0.87 0.93 0.94 0.85 0.90 0.88 0.82 0.85 0.87 0.80 0.80 0.83 0.79 0.75 0.71 0.66 0.72 0.71 0.65 0.64 0.51
0.27 0.46 0.72 0.60 0.65 0.77 1.13 1.50 1.38 1.17 0.83 0.77 1.24 1.36 1.19 1.21 1.50 1.23 0.99 0.91 0.91 0.89 0.78 0.82 0.85 0.77 0.80 0.60 0.59 0.61 0.89 0.98 0.96 0.94 0.93 0.93 0.95 1.01 1.05 0.94 0.87 0.74 0.68 0.68 0.67 0.65 0.66 0.68 0.53 0.39 0.45 0.57 0.42 0.35
0.44 0.46 0.54 0.54 0.61 0.89 1.00 0.94 1.09 0.72 0.68 0.98 1.19 1.41 0.87 1.00 1.01 0.99 0.90 0.71 0.62 0.62 0.68 0.84 0.77 0.64 0.80 0.91 0.98 0.97 1.00 1.04 1.07 1.01 0.98 1.01 0.96 0.89 0.80 0.71 0.72 0.61 0.55 0.57 0.49 0.46 0.43 0.39 0.29 0.32 0.29 0.28 0.20 0.19
0.67 0.57 0.77 0.82 0.58 0.64 0.76 0.55 0.37 0.54 1.03 0.88 0.90 0.72 0.55 0.68 0.68 0.62 0.44 0.29 0.22 0.41 0.69 0.77 0.71 0.92 0.98 1.01 1.00 0.96 0.95 0.89 0.92 0.87 0.79 0.79 0.78 0.73 0.68 0.59 0.57 0.59 0.49 0.46 0.33 0.25 0.24 0.19 0.19 0.16 0.16 0.12 0.16 0.20
0.95 0.86 0.88 0.68 0.34 0.38 0.26 0.25 0.13 0.23 0.47 0.53 0.48 0.27 0.23 0.42 0.38 0.23 0.16 0.11 0.16 0.33 0.69 0.95 1.25 1.18 1.01 0.89 0.72 0.75 0.75 0.68 0.53 0.42 0.54 0.61 0.62 0.48 0.54 0.47 0.45 0.40 0.31 0.28 0.23 0.19 0.16 0.15 0.17 0.16 0.16 0.15 0.17 0.20
0.91 1.00 0.77 0.38 0.29 0.26 0.22 0.15 0.14 0.10 0.21 0.23 0.22 0.11 0.17 0.19 0.18 0.18 0.14 0.11 0.33 0.40 0.67 0.88 0.88 0.80 0.51 0.47 0.41 0.36 0.44 0.42 0.42 0.30 0.37 0.48 0.51 0.33 0.35 0.38 0.33 0.29 0.25 0.26 0.24 0.27 0.22 0.23 0.20 0.15 0.16 0.14 0.15 0.15
0.67 0.57 0.60 0.29 0.23 0.20 0.12 0.06 0.09 0.06 0.07 0.16 0.19 0.17 0.27 0.28 0.22 0.14 0.11 0.24 0.60 0.79 0.73 0.54 0.43 0.32 0.22 0.26 0.24 0.18 0.25 0.20 0.25 0.35 0.45 0.37 0.42 0.41 0.43 0.46 0.34 0.34 0.31 0.31 0.27 0.25 0.23 0.18 0.12 0.09 0.09 0.13 0.10 0.09
0.30 0.28 0.32 0.19 0.17 0.17 0.16 0.13 0.13 0.06 0.07 0.14 0.12 0.17 0.18 0.19 0.21 0.15 0.36 0.52 0.84 0.84 0.56 0.29 0.20 0.16 0.19 0.29 0.20 0.17 0.14 0.12 0.16 0.22 0.26 0.28 0.30 0.33 0.32 0.34 0.31 0.30 0.26 0.22 0.16 0.15 0.15 0.09 0.04 0.05 0.08 0.10 0.13 0.15
0.23 0.33 0.47 0.28 0.15 0.21 0.14 0.21 0.15 0.13 0.09 0.09 0.13 0.17 0.16 0.13 0.17 0.32 0.53 0.59 0.78 0.46 0.25 0.29 0.28 0.24 0.22 0.22 0.23 0.25 0.28 0.21 0.23 0.28 0.31 0.25 0.25 0.29 0.19 0.18 0.14 0.12 0.09 0.07 0.03 0.04 0.06 0.10 0.10 0.14 0.13 0.13 0.14 0.15
0.45 0.35 0.47 0.38 0.18 0.14 0.11 0.14 0.16 0.12 0.10 0.06 0.10 0.16 0.09 0.06 0.22 0.35 0.39 0.77 0.54 0.37 0.33 0.32 0.33 0.36 0.38 0.39 0.38 0.34 0.24 0.17 0.15 0.18 0.21 0.15 0.18 0.20 0.17 0.13 0.10 0.08 0.06 0.08 0.09 0.08 0.09 0.11 0.14 0.17 0.16 0.17 0.19 0.21
0.61 0.36 0.27 0.25 0.18 0.20 0.17 0.19 0.16 0.11 0.08 0.15 0.17 0.14 0.09 0.20 0.26 0.42 0.55 0.69 0.49 0.45 0.46 0.44 0.35 0.27 0.26 0.26 0.26 0.22 0.15 0.10 0.09 0.12 0.12 0.05 0.10 0.14 0.21 0.20 0.16 0.15 0.10 0.10 0.11 0.13 0.14 0.13 0.15 0.18 0.25 0.23 0.21 0.23
0.38 0.37 0.17 0.18 0.26 0.26 0.34 0.33 0.33 0.29 0.25 0.28 0.25 0.17 0.21 0.31 0.37 0.69 0.83 0.58 0.49 0.50 0.36 0.28 0.20 0.16 0.17 0.18 0.20 0.14 0.06 0.04 0.06 0.08 0.07 0.09 0.10 0.10 0.14 0.21 0.22 0.17 0.08 0.12 0.16 0.17 0.18 0.19 0.19 0.21 0.25 0.26 0.23 0.24
0.30 0.21 0.34 0.32 0.46 0.47 0.39 0.31 0.34 0.44 0.49 0.38 0.31 0.32 0.33 0.34 0.66 0.77 0.63 0.58 0.43 0.30 0.22 0.18 0.15 0.08 0.10 0.14 0.22 0.17 0.12 0.09 0.06 0.05 0.09 0.17 0.13 0.09 0.10 0.12 0.10 0.09 0.09 0.16 0.23 0.28 0.29 0.27 0.23 0.21 0.23 0.25 0.29 0.34
0.20 0.17 0.20 0.24 0.23 0.30 0.31 0.37 0.42 0.39 0.36 0.33 0.38 0.50 0.36 0.39 0.63 0.58 0.55 0.43 0.35 0.23 0.25 0.26 0.35 0.18 0.16 0.18 0.27 0.26 0.18 0.15 0.10 0.12 0.14 0.21 0.19 0.17 0.12 0.13 0.17 0.19 0.18 0.20 0.31 0.35 0.39 0.37 0.30 0.28 0.28 0.29 0.31 0.35
0.09 0.07 0.15 0.08 0.12 0.29 0.39 0.28 0.30 0.22 0.13 0.24 0.30 0.31 0.28 0.60 0.85 0.57 0.40 0.34 0.32 0.32 0.30 0.26 0.26 0.22 0.22 0.23 0.29 0.40 0.42 0.39 0.28 0.25 0.24 0.19 0.16 0.14 0.13 0.13 0.14 0.18 0.19 0.17 0.20 0.34 0.41 0.41 0.44 0.42 0.32 0.35 0.37 0.36
0.06 0.11 0.11 0.08 0.18 0.25 0.25 0.15 0.14 0.14 0.20 0.31 0.29 0.28 0.34 0.55 0.57 0.47 0.36 0.38 0.31 0.21 0.19 0.24 0.25 0.25 0.28 0.33 0.31 0.28 0.42 0.44 0.33 0.26 0.20 0.17 0.14 0.13 0.13 0.11 0.13 0.19 0.25 0.27 0.24 0.26 0.31 0.34 0.35 0.34 0.30 0.28 0.29 0.24
0.12 0.16 0.14 0.17 0.30 0.26 0.26 0.26 0.20 0.32 0.41 0.44 0.51 0.52 0.53 0.33 0.27 0.33 0.33 0.32 0.30 0.23 0.25 0.28 0.36 0.43 0.38 0.48 0.48 0.46 0.39 0.32 0.25 0.19 0.16 0.15 0.15 0.15 0.11 0.11 0.13 0.17 0.26 0.29 0.28 0.29 0.29 0.27 0.32 0.32 0.30 0.27 0.27 0.25
0.11 0.09 0.11 0.15 0.18 0.20 0.24 0.26 0.18 0.23 0.37 0.41 0.45 0.45 0.44 0.27 0.29 0.39 0.31 0.29 0.51 0.41 0.32 0.32 0.38 0.49 0.50 0.39 0.35 0.33 0.30 0.26 0.20 0.16 0.15 0.15 0.13 0.12 0.11 0.12 0.13 0.15 0.19 0.25 0.27 0.27 0.25 0.24 0.26 0.29 0.27 0.23 0.23 0.21